K5BWX-2 Weather Reports


Display with metric or nautical units.
time (UTC)temp
F
wind
direction
speed
MPH
gust
MPH
rain 1hr
in
rain 24hr
in
rain mn
in
humidity
%
barometer
mb
20260903095618 78 149 1.0 6.0 0.00 0.00 0.00 74 1021.4
20260903095553 78 149 1.0 6.0 0.00 0.00 0.00 74 1021.3
20260903095541 78 149 1.0 6.0 0.00 0.00 0.00 74 1021.4
20260903095320 78 140 1.0 5.0 0.00 0.00 0.00 74 1021.3
20260903095219 78 192 1.0 5.0 0.00 0.00 0.00 74 1021.3
20260903095118 78 227 1.0 5.0 0.00 0.00 0.00 74 1021.3
20260903095048 78 205 1.0 5.0 0.00 0.00 0.00 74 1021.3
20260903095042 78 145 1.0 4.0 0.00 0.00 0.00 74 1021.2
20260903095028 78 196 1.0 5.0 0.00 0.00 0.00 74 1021.3
20260903095007 78 205 1.0 5.0 0.00 0.00 0.00 74 1021.2
20260903094618 78 201 1.0 4.0 0.00 0.00 0.00 74 1021.3
20260903094553 78 189 1.0 4.0 0.00 0.00 0.00 74 1021.3
20260903094538 78 188 1.0 4.0 0.00 0.00 0.00 74 1021.3
20260903094320 78 202 1.0 4.0 0.00 0.00 0.00 74 1021.3
20260903094231 78 173 1.0 2.0 0.00 0.00 0.00 74 1021.3
20260903094212 78 207 1.0 4.0 0.00 0.00 0.00 74 1021.3
20260903094153 78 209 1.0 4.0 0.00 0.00 0.00 74 1021.3
20260903093917 78 144 1.0 2.0 0.00 0.00 0.00 74 1021.3
20260903093813 78 144 1.0 2.0 0.00 0.00 0.00 74 1021.3
20260903093707 78 144 0.0 2.0 0.00 0.00 0.00 74 1021.3
20260903093609 78 144 0.0 2.0 0.00 0.00 0.00 74 1021.3
20260903093509 78 143 1.0 2.0 0.00 0.00 0.00 74 1021.4
20260903093405 78 143 1.0 4.0 0.00 0.00 0.00 74 1021.4
20260903093332 78 143 1.0 4.0 0.00 0.00 0.00 74 1021.3
20260903093204 78 143 1.0 4.0 0.00 0.00 0.00 74 1021.3
20260903093100 78 143 1.0 4.0 0.00 0.00 0.00 74 1021.3
20260903092958 78 141 1.0 4.0 0.00 0.00 0.00 74 1021.3
20260903092901 78 141 1.0 4.0 0.00 0.00 0.00 74 1021.3
20260903092800 78 141 1.0 4.0 0.00 0.00 0.00 74 1021.3
20260903092656 78 155 1.0 4.0 0.00 0.00 0.00 74 1021.3
20260903092629 78 141 1.0 3.0 0.00 0.00 0.00 74 1021.2
20260903092622 78 141 1.0 3.0 0.00 0.00 0.00 74 1021.3
20260903092604 78 155 1.0 4.0 0.00 0.00 0.00 74 1021.3
20260903092540 78 169 1.0 4.0 0.00 0.00 0.00 74 1021.3
20260903092458 78 163 1.0 3.0 0.00 0.00 0.00 74 1021.3
20260903092047 78 141 1.0 4.0 0.00 0.00 0.00 74 1021.2
20260903092035 78 136 1.0 4.0 0.00 0.00 0.00 74 1021.3
20260903092019 78 142 1.0 4.0 0.00 0.00 0.00 74 1021.3
20260903091747 78 186 1.0 4.0 0.00 0.00 0.00 74 1021.3
20260903091642 78 191 1.0 4.0 0.00 0.00 0.00 74 1021.3
20260903091541 78 191 1.0 4.0 0.00 0.00 0.00 74 1021.3
20260903091454 78 198 1.0 4.0 0.00 0.00 0.00 74 1021.3
20260903091343 78 178 1.0 4.0 0.00 0.00 0.00 74 1021.3
20260903091242 78 178 1.0 4.0 0.00 0.00 0.00 74 1021.3
20260903091143 78 178 1.0 4.0 0.00 0.00 0.00 74 1021.3
20260903091041 78 177 1.0 9.0 0.00 0.00 0.00 74 1021.4
20260903090939 78 244 1.0 9.0 0.00 0.00 0.00 74 1021.3
20260903090840 78 244 1.0 9.0 0.00 0.00 0.00 74 1021.3
20260903090738 78 209 1.0 9.0 0.00 0.00 0.00 74 1021.3
20260903090638 78 169 1.0 9.0 0.00 0.00 0.00 74 1021.4
20260903090538 78 169 1.0 9.0 0.00 0.00 0.00 74 1021.3
20260903090437 78 162 1.0 9.0 0.00 0.00 0.00 74 1021.4
20260903090339 78 162 1.0 9.0 0.00 0.00 0.00 74 1021.4
20260903090237 78 162 1.0 9.0 0.00 0.00 0.00 74 1021.3
20260903090137 78 165 1.0 9.0 0.00 0.00 0.00 74 1021.4
20260903090037 78 82 1.0 4.0 0.00 0.00 0.00 74 1021.4
20260903085935 78 80 1.0 4.0 0.00 0.00 0.00 74 1021.4
20260903085834 78 213 1.0 4.0 0.00 0.00 0.00 74 1021.4
20260903085728 78 93 1.0 4.0 0.00 0.00 0.00 74 1021.4
20260903085626 78 93 1.0 5.0 0.00 0.00 0.00 74 1021.4
20260903085604 78 91 1.0 5.0 0.00 0.00 0.00 74 1021.4
20260903085553 78 91 1.0 5.0 0.00 0.00 0.00 74 1021.5
20260903085327 78 169 1.0 7.0 0.00 0.00 0.00 74 1021.3
20260903085223 78 188 1.0 7.0 0.00 0.00 0.00 74 1021.4
20260903085119 78 188 1.0 7.0 0.00 0.00 0.00 74 1021.4
20260903085021 78 188 1.0 7.0 0.00 0.00 0.00 74 1021.4
20260903084924 78 220 1.0 7.0 0.00 0.00 0.00 74 1021.4
20260903084820 78 196 1.0 7.0 0.00 0.00 0.00 74 1021.4
20260903084744 78 172 1.0 7.0 0.00 0.00 0.00 74 1021.4
20260903084731 78 169 1.0 7.0 0.00 0.00 0.00 74 1021.4
20260903084551 78 145 1.0 5.0 0.00 0.00 0.00 74 1021.4
20260903084545 78 144 1.0 5.0 0.00 0.00 0.00 74 1021.5
20260903084539 78 165 1.0 5.0 0.00 0.00 0.00 74 1021.5
20260903084524 78 170 1.0 7.0 0.00 0.00 0.00 74 1021.5
20260903084505 78 51 1.0 5.0 0.00 0.00 0.00 74 1021.4
20260903084000 78 231 2.0 5.0 0.00 0.00 0.00 74 1021.5
20260903083900 78 231 1.0 5.0 0.00 0.00 0.00 74 1021.4
20260903083800 78 161 2.0 5.0 0.00 0.00 0.00 74 1021.4
20260903083700 78 148 2.0 5.0 0.00 0.00 0.00 74 1021.4
20260903083557 79 148 2.0 5.0 0.00 0.00 0.00 74 1021.4
20260903083456 79 148 2.0 5.0 0.00 0.00 0.00 74 1021.4
20260903083421 79 169 2.0 7.0 0.00 0.00 0.00 74 1021.4
20260903083415 79 198 2.0 7.0 0.00 0.00 0.00 74 1021.3
20260903083402 79 211 2.0 7.0 0.00 0.00 0.00 74 1021.4
20260903083338 79 189 2.0 7.0 0.00 0.00 0.00 74 1021.4
20260903082948 79 128 2.0 7.0 0.00 0.00 0.00 74 1021.4
20260903082846 79 215 2.0 7.0 0.00 0.00 0.00 74 1021.4
20260903082807 79 182 1.0 7.0 0.00 0.00 0.00 74 1021.3
20260903082759 79 182 1.0 7.0 0.00 0.00 0.00 74 1021.4
20260903082537 79 182 2.0 7.0 0.00 0.00 0.00 74 1021.3
20260903082438 79 171 2.0 6.0 0.00 0.00 0.00 74 1021.5
20260903082339 79 219 1.0 6.0 0.00 0.00 0.00 74 1021.4
20260903082239 79 223 1.0 6.0 0.00 0.00 0.00 74 1021.4
20260903082135 79 155 1.0 6.0 0.00 0.00 0.00 74 1021.4
20260903082037 79 152 1.0 6.0 0.00 0.00 0.00 74 1021.4
20260903081934 79 206 1.0 8.0 0.00 0.00 0.00 74 1021.5
20260903081834 79 204 1.0 8.0 0.00 0.00 0.00 74 1021.4
20260903081732 79 209 2.0 8.0 0.00 0.00 0.00 74 1021.4
20260903081641 79 153 1.0 8.0 0.00 0.00 0.00 74 1021.3
20260903081628 79 218 2.0 8.0 0.00 0.00 0.00 74 1021.4
20260903081428 79 173 1.0 8.0 0.00 0.00 0.00 74 1021.3
20260903081332 79 173 1.0 8.0 0.00 0.00 0.00 74 1021.3
20260903081232 79 156 1.0 8.0 0.00 0.00 0.00 73 1021.4
20260903081127 79 140 1.0 8.0 0.00 0.00 0.00 73 1021.4
20260903081025 79 192 1.0 8.0 0.00 0.00 0.00 74 1021.3
20260903080928 79 195 1.0 4.0 0.00 0.00 0.00 73 1021.3
20260903080822 79 192 1.0 5.0 0.00 0.00 0.00 73 1021.4
20260903080721 79 212 1.0 5.0 0.00 0.00 0.00 73 1021.4
20260903080622 79 126 1.0 5.0 0.00 0.00 0.00 73 1021.3
20260903080557 79 215 1.0 5.0 0.00 0.00 0.00 73 1021.4
20260903080545 79 215 1.0 5.0 0.00 0.00 0.00 73 1021.4
20260903080331 79 215 1.0 5.0 0.00 0.00 0.00 73 1021.4
20260903080221 79 217 1.0 5.0 0.00 0.00 0.00 73 1021.3
20260903080159 79 103 1.0 5.0 0.00 0.00 0.00 72 1021.3
20260903080150 79 198 1.0 5.0 0.00 0.00 0.00 73 1021.3
20260903075921 79 208 1.0 7.0 0.00 0.00 0.00 73 1021.4
20260903075827 79 159 1.0 7.0 0.00 0.00 0.00 72 1021.3
20260903075719 79 130 1.0 7.0 0.00 0.00 0.00 72 1021.3
20260903075621 79 128 1.0 7.0 0.00 0.00 0.00 72 1021.3
20260903075522 80 219 1.0 7.0 0.00 0.00 0.00 72 1021.3
20260903075418 80 192 1.0 7.0 0.00 0.00 0.00 72 1021.3
20260903075320 80 115 1.0 7.0 0.00 0.00 0.00 72 1021.3
20260903075220 80 230 1.0 7.0 0.00 0.00 0.00 72 1021.3
20260903075118 80 230 2.0 7.0 0.00 0.00 0.00 72 1021.3
20260903075017 80 231 2.0 7.0 0.00 0.00 0.00 72 1021.3
20260903074918 80 231 2.0 6.0 0.00 0.00 0.00 71 1021.2
20260903074820 80 206 2.0 5.0 0.00 0.00 0.00 71 1021.2
20260903074718 80 206 2.0 5.0 0.00 0.00 0.00 71 1021.1
20260903074619 80 202 2.0 5.0 0.00 0.00 0.00 71 1021.1
20260903074517 80 202 2.0 5.0 0.00 0.00 0.00 71 1021.2
20260903074417 80 202 1.0 5.0 0.00 0.00 0.00 71 1021.2
20260903074319 80 232 1.0 4.0 0.00 0.00 0.00 71 1021.2
20260903074218 80 194 1.0 4.0 0.00 0.00 0.00 71 1021.1
20260903074118 80 194 1.0 4.0 0.00 0.00 0.00 71 1021.2
20260903074017 80 161 1.0 4.0 0.00 0.00 0.00 71 1021.2
20260903073917 80 213 1.0 4.0 0.00 0.00 0.00 71 1021.1
20260903073819 80 206 1.0 4.0 0.00 0.00 0.00 71 1021.2
20260903073718 80 180 1.0 6.0 0.00 0.00 0.00 71 1021.2
20260903073649 80 198 1.0 6.0 0.00 0.00 0.00 71 1021.2
20260903073638 80 198 1.0 6.0 0.00 0.00 0.00 71 1021.2
20260903073450 80 198 1.0 6.0 0.00 0.00 0.00 71 1021.2
20260903073439 80 198 1.0 6.0 0.00 0.00 0.00 71 1021.2
20260903073213 80 171 1.0 6.0 0.00 0.00 0.00 71 1021.2
20260903073146 80 259 1.0 6.0 0.00 0.00 0.00 71 1021.3
20260903073135 80 259 1.0 6.0 0.00 0.00 0.00 71 1021.2
20260903072911 80 203 1.0 6.0 0.00 0.00 0.00 71 1021.2
20260903072809 80 169 1.0 6.0 0.00 0.00 0.00 71 1021.2
20260903072744 80 175 1.0 5.0 0.00 0.00 0.00 71 1021.2
20260903072733 80 196 1.0 5.0 0.00 0.00 0.00 71 1021.2
20260903072507 80 175 1.0 5.0 0.00 0.00 0.00 71 1021.1
20260903072407 80 221 1.0 5.0 0.00 0.00 0.00 71 1021.1
20260903072307 80 228 1.0 5.0 0.00 0.00 0.00 71 1021.2
20260903072205 80 228 1.0 5.0 0.00 0.00 0.00 71 1021.1
20260903072102 80 228 1.0 5.0 0.00 0.00 0.00 71 1021.1
20260903072001 80 194 1.0 5.0 0.00 0.00 0.00 71 1021.1
20260903071911 80 151 1.0 4.0 0.00 0.00 0.00 71 1021.2
20260903071759 80 151 1.0 4.0 0.00 0.00 0.00 71 1021.2
20260903071657 80 155 1.0 4.0 0.00 0.00 0.00 71 1021.2
20260903071557 80 153 1.0 4.0 0.00 0.00 0.00 71 1021.2
20260903071444 80 182 1.0 4.0 0.00 0.00 0.00 71 1021.1
20260903071342 80 181 1.0 4.0 0.00 0.00 0.00 71 1021.1
20260903071316 80 186 1.0 4.0 0.00 0.00 0.00 71 1021.1
20260903071304 80 159 1.0 4.0 0.00 0.00 0.00 71 1021.1
20260903071042 80 186 1.0 4.0 0.00 0.00 0.00 71 1021.1
20260903070939 80 146 1.0 4.0 0.00 0.00 0.00 70 1021.1
20260903070840 80 209 1.0 4.0 0.00 0.00 0.00 71 1021.1
20260903070739 80 209 1.0 4.0 0.00 0.00 0.00 70 1021.1
20260903070638 80 165 1.0 4.0 0.00 0.00 0.00 70 1021.1
20260903070536 80 167 1.0 4.0 0.00 0.00 0.00 70 1021.2
20260903070430 80 167 1.0 4.0 0.00 0.00 0.00 70 1021.1
20260903070330 80 203 1.0 4.0 0.00 0.00 0.00 70 1021.1
20260903070230 80 211 1.0 4.0 0.00 0.00 0.00 70 1021.1
20260903070139 80 203 1.0 4.0 0.00 0.00 0.00 70 1021.1
20260903070056 80 188 1.0 5.0 0.00 0.00 0.00 70 1021.1
20260903070051 80 152 1.0 4.0 0.00 0.00 0.00 70 1021.1
20260903070047 80 202 1.0 4.0 0.00 0.00 0.00 70 1021.1
20260903070034 80 152 1.0 4.0 0.00 0.00 0.00 70 1021.1
20260903070013 80 152 1.0 4.0 0.00 0.00 0.00 70 1021.1
20260903065825 80 202 1.0 4.0 0.00 0.00 0.00 70 1021.1
20260903065539 80 184 1.0 5.0 0.00 0.00 0.00 70 1021.1
20260903065315 80 189 1.0 5.0 0.00 0.00 0.00 70 1021.0
20260903065213 80 181 1.0 5.0 0.00 0.00 0.00 70 1021.1
20260903065149 80 181 1.0 5.0 0.00 0.00 0.00 70 1021.1
20260903065138 80 181 1.0 5.0 0.00 0.00 0.00 70 1021.1
20260903064909 80 179 1.0 5.0 0.00 0.00 0.00 70 1021.1
20260903064807 80 179 1.0 5.0 0.00 0.00 0.00 70 1021.1
20260903064740 80 191 1.0 4.0 0.00 0.00 0.00 70 1021.1
20260903064730 80 179 1.0 5.0 0.00 0.00 0.00 70 1021.1
20260903064508 80 205 1.0 4.0 0.00 0.00 0.00 70 1021.1
20260903064400 80 205 1.0 4.0 0.00 0.00 0.00 70 1021.1
20260903064302 80 205 1.0 5.0 0.00 0.00 0.00 70 1021.1
20260903064234 80 182 1.0 5.0 0.00 0.00 0.00 70 1021.1
20260903064224 80 205 1.0 5.0 0.00 0.00 0.00 70 1021.1
20260903063958 80 207 1.0 5.0 0.00 0.00 0.00 70 1021.2
20260903063858 80 207 1.0 5.0 0.00 0.00 0.00 70 1021.2
20260903063755 80 207 2.0 5.0 0.00 0.00 0.00 70 1021.2
20260903063656 80 207 2.0 5.0 0.00 0.00 0.00 70 1021.3
20260903063555 80 207 2.0 5.0 0.00 0.00 0.00 70 1021.2
20260903063512 80 200 2.0 5.0 0.00 0.00 0.00 69 1021.2
20260903063506 80 224 2.0 5.0 0.00 0.00 0.00 69 1021.2
20260903063454 80 210 2.0 5.0 0.00 0.00 0.00 69 1021.2
20260903063428 80 204 2.0 5.0 0.00 0.00 0.00 69 1021.2
20260903063045 80 223 2.0 5.0 0.00 0.00 0.00 69 1021.2
20260903062946 80 148 2.0 5.0 0.00 0.00 0.00 69 1021.2
20260903062834 80 173 1.0 5.0 0.00 0.00 0.00 69 1021.3
20260903062735 80 196 1.0 5.0 0.00 0.00 0.00 69 1021.2
20260903062636 80 190 1.0 8.0 0.00 0.00 0.00 69 1021.2
20260903062536 81 189 1.0 8.0 0.00 0.00 0.00 69 1021.3
20260903062432 81 192 1.0 8.0 0.00 0.00 0.00 69 1021.2
20260903062327 81 201 1.0 8.0 0.00 0.00 0.00 68 1021.2
20260903062232 81 205 1.0 8.0 0.00 0.00 0.00 68 1021.2
20260903062127 81 203 2.0 8.0 0.00 0.00 0.00 68 1021.3
20260903062026 81 203 2.0 8.0 0.00 0.00 0.00 68 1021.3
20260903061926 81 204 2.0 8.0 0.00 0.00 0.00 68 1021.2
20260903061821 81 203 2.0 8.0 0.00 0.00 0.00 68 1021.2
20260903061751 81 168 2.0 7.0 0.00 0.00 0.00 67 1021.2
20260903061745 81 140 2.0 9.0 0.00 0.00 0.00 67 1021.3
20260903061731 81 203 2.0 8.0 0.00 0.00 0.00 68 1021.2
20260903061702 81 231 2.0 7.0 0.00 0.00 0.00 68 1021.2
20260903061312 81 223 2.0 9.0 0.00 0.00 0.00 67 1021.2
20260903061208 81 202 2.0 9.0 0.00 0.00 0.00 67 1021.3
20260903061141 81 167 2.0 9.0 0.00 0.00 0.00 67 1021.3
20260903061136 81 220 2.0 9.0 0.00 0.00 0.00 67 1021.2
20260903061121 81 197 2.0 9.0 0.00 0.00 0.00 67 1021.2
20260903061055 81 169 2.0 9.0 0.00 0.00 0.00 67 1021.3
20260903060740 81 179 2.0 9.0 0.00 0.00 0.00 67 1021.3
20260903060727 81 188 2.0 9.0 0.00 0.00 0.00 67 1021.2
20260903060505 81 177 2.0 9.0 0.00 0.00 0.00 67 1021.3
20260903060403 81 188 2.0 8.0 0.00 0.00 0.00 67 1021.3
20260903060301 81 287 2.0 8.0 0.00 0.00 0.00 67 1021.2
20260903060202 81 210 2.0 8.0 0.00 0.00 0.00 67 1021.3
20260903060003 81 169 2.0 8.0 0.00 0.00 0.00 67 1021.3
20260903055901 81 168 2.0 8.0 0.00 0.00 0.00 67 1021.3
20260903055800 81 165 1.0 8.0 0.00 0.00 0.00 67 1021.2
20260903055701 81 142 2.0 6.0 0.00 0.00 0.00 67 1021.2
20260903055628 81 142 2.0 6.0 0.00 0.00 0.00 67 1021.3
20260903055551 81 138 2.0 7.0 0.00 0.00 0.00 67 1021.3
20260903055538 81 142 2.0 6.0 0.00 0.00 0.00 67 1021.3
20260903055258 81 214 2.0 7.0 0.00 0.00 0.00 67 1021.3
20260903055156 81 169 2.0 7.0 0.00 0.00 0.00 67 1021.3
20260903055053 81 143 2.0 7.0 0.00 0.00 0.00 67 1021.3
20260903054953 81 221 2.0 7.0 0.00 0.00 0.00 67 1021.3
20260903054849 81 221 2.0 7.0 0.00 0.00 0.00 67 1021.3
20260903054749 81 169 2.0 7.0 0.00 0.00 0.00 67 1021.3
20260903054649 81 169 2.0 7.0 0.00 0.00 0.00 66 1021.3
20260903054541 81 133 2.0 7.0 0.00 0.00 0.00 66 1021.3
20260903054442 81 117 2.0 8.0 0.00 0.00 0.00 66 1021.3
20260903054340 81 180 2.0 8.0 0.00 0.00 0.00 66 1021.3
20260903054239 81 183 2.0 8.0 0.00 0.00 0.00 66 1021.3
20260903054138 81 175 2.0 8.0 0.00 0.00 0.00 66 1021.3
20260903054031 81 150 2.0 8.0 0.00 0.00 0.00 66 1021.3
20260903053931 81 191 1.0 8.0 0.00 0.00 0.00 66 1021.3
20260903053832 81 175 1.0 8.0 0.00 0.00 0.00 66 1021.2
20260903053730 81 163 1.0 8.0 0.00 0.00 0.00 66 1021.3
20260903053630 81 155 2.0 8.0 0.00 0.00 0.00 66 1021.3
20260903053531 81 121 1.0 5.0 0.00 0.00 0.00 66 1021.3
20260903053432 81 165 1.0 5.0 0.00 0.00 0.00 66 1021.3
20260903053331 81 161 2.0 5.0 0.00 0.00 0.00 66 1021.2
20260903053229 81 157 2.0 6.0 0.00 0.00 0.00 66 1021.3
20260903053131 81 204 2.0 6.0 0.00 0.00 0.00 66 1021.3
20260903053027 81 178 2.0 6.0 0.00 0.00 0.00 66 1021.3
20260903052926 81 183 2.0 6.0 0.00 0.00 0.00 66 1021.3
20260903052827 81 215 2.0 6.0 0.00 0.00 0.00 66 1021.3
20260903052727 81 218 1.0 6.0 0.00 0.00 0.00 66 1021.3
20260903052627 81 206 1.0 6.0 0.00 0.00 0.00 65 1021.3
20260903052526 81 203 1.0 6.0 0.00 0.00 0.00 65 1021.3
20260903052424 81 192 1.0 6.0 0.00 0.00 0.00 65 1021.3
20260903052323 81 188 1.0 6.0 0.00 0.00 0.00 65 1021.3
20260903052227 81 162 1.0 5.0 0.00 0.00 0.00 65 1021.4
20260903052124 81 91 1.0 5.0 0.00 0.00 0.00 66 1021.4
20260903052022 81 174 1.0 5.0 0.00 0.00 0.00 65 1021.4
20260903051924 81 166 1.0 5.0 0.00 0.00 0.00 65 1021.3
20260903051823 81 200 1.0 5.0 0.00 0.00 0.00 65 1021.4
20260903051757 81 194 2.0 5.0 0.00 0.00 0.00 65 1021.4
20260903051745 81 174 1.0 5.0 0.00 0.00 0.00 65 1021.4
20260903051520 81 193 1.0 5.0 0.00 0.00 0.00 65 1021.4
20260903051422 81 144 1.0 5.0 0.00 0.00 0.00 65 1021.4
20260903051320 81 126 1.0 5.0 0.00 0.00 0.00 65 1021.4
20260903051249 81 165 2.0 5.0 0.00 0.00 0.00 65 1021.4
20260903051239 81 165 1.0 5.0 0.00 0.00 0.00 65 1021.3
20260903051056 81 123 1.0 4.0 0.00 0.00 0.00 65 1021.4
20260903051042 81 123 2.0 4.0 0.00 0.00 0.00 65 1021.4
20260903050812 81 195 1.0 4.0 0.00 0.00 0.00 65 1021.4
20260903050742 81 167 1.0 4.0 0.00 0.00 0.00 65 1021.5
20260903050734 81 88 1.0 4.0 0.00 0.00 0.00 65 1021.4
20260903050506 81 166 1.0 4.0 0.00 0.00 0.00 65 1021.4
20260903050439 81 193 1.0 4.0 0.00 0.00 0.00 65 1021.4
20260903050431 81 146 1.0 4.0 0.00 0.00 0.00 65 1021.4
20260903050207 81 194 1.0 4.0 0.00 0.00 0.00 65 1021.4
20260903050109 81 173 1.0 4.0 0.00 0.00 0.00 65 1021.5
20260903050006 81 167 1.0 4.0 0.00 0.00 0.00 65 1021.4
20260903045913 81 215 1.0 5.0 0.00 0.00 0.00 65 1021.4
20260903045805 81 184 1.0 5.0 0.00 0.00 0.00 65 1021.4
20260903045708 81 168 1.0 5.0 0.00 0.00 0.00 65 1021.4
20260903045605 81 157 1.0 6.0 0.00 0.00 0.00 65 1021.4
20260903045507 81 140 1.0 6.0 0.00 0.00 0.00 65 1021.3
20260903045405 81 138 1.0 6.0 0.00 0.00 0.00 64 1021.4
20260903045308 81 111 1.0 6.0 0.00 0.00 0.00 65 1021.4
20260903045209 82 111 2.0 6.0 0.00 0.00 0.00 64 1021.3
20260903045201 82 172 1.0 6.0 0.00 0.00 0.00 65 1021.4
20260903045156 82 155 1.0 6.0 0.00 0.00 0.00 64 1021.4
20260903045140 82 111 1.0 6.0 0.00 0.00 0.00 65 1021.4
20260903044950 82 223 1.0 6.0 0.00 0.00 0.00 65 1021.4
20260903044724 82 71 1.0 5.0 0.00 0.00 0.00 65 1021.4
20260903044711 82 176 1.0 6.0 0.00 0.00 0.00 65 1021.4
20260903044649 82 121 1.0 5.0 0.00 0.00 0.00 65 1021.4
20260903044406 82 104 2.0 5.0 0.00 0.00 0.00 64 1021.5
20260903044306 82 208 2.0 5.0 0.00 0.00 0.00 64 1021.5
20260903044207 82 213 2.0 5.0 0.00 0.00 0.00 65 1021.5
20260903044110 82 109 2.0 5.0 0.00 0.00 0.00 65 1021.4
20260903044033 82 136 1.0 5.0 0.00 0.00 0.00 65 1021.4
20260903044023 82 109 1.0 5.0 0.00 0.00 0.00 65 1021.5
20260903043801 82 134 1.0 5.0 0.00 0.00 0.00 65 1021.4
20260903043739 82 191 1.0 5.0 0.00 0.00 0.00 64 1021.5
20260903043728 82 171 1.0 5.0 0.00 0.00 0.00 64 1021.4
20260903043501 82 186 1.0 5.0 0.00 0.00 0.00 64 1021.5
20260903043438 82 120 1.0 5.0 0.00 0.00 0.00 64 1021.5
20260903043429 82 196 1.0 5.0 0.00 0.00 0.00 64 1021.4
20260903043204 82 238 1.0 5.0 0.00 0.00 0.00 64 1021.5
20260903043102 82 190 1.0 5.0 0.00 0.00 0.00 64 1021.5
20260903043002 82 184 1.0 5.0 0.00 0.00 0.00 64 1021.5
20260903042902 82 159 1.0 5.0 0.00 0.00 0.00 64 1021.5
20260903042804 82 159 1.0 5.0 0.00 0.00 0.00 64 1021.5
20260903042704 82 157 1.0 5.0 0.00 0.00 0.00 64 1021.5
20260903042602 82 171 1.0 5.0 0.00 0.00 0.00 64 1021.5
20260903042504 82 185 1.0 5.0 0.00 0.00 0.00 64 1021.5
20260903042401 82 194 1.0 3.0 0.00 0.00 0.00 64 1021.7
20260903042305 82 194 1.0 3.0 0.00 0.00 0.00 64 1021.5
20260903042201 82 198 1.0 3.0 0.00 0.00 0.00 64 1021.5
20260903042102 82 198 1.0 3.0 0.00 0.00 0.00 65 1021.7
20260903042001 82 198 1.0 3.0 0.00 0.00 0.00 65 1021.5
20260903041932 82 198 1.0 3.0 0.00 0.00 0.00 65 1021.7
20260903041922 82 198 1.0 3.0 0.00 0.00 0.00 65 1021.7
20260903041705 82 165 1.0 3.0 0.00 0.00 0.00 65 1021.7
20260903041601 82 148 1.0 3.0 0.00 0.00 0.00 66 1021.7
20260903041542 82 144 1.0 3.0 0.00 0.00 0.00 66 1021.7
20260903041526 81 144 1.0 3.0 0.00 0.00 0.00 66 1021.5
20260903041333 82 144 1.0 4.0 0.00 0.00 0.00 66 1021.7
20260903041324 82 144 1.0 3.0 0.00 0.00 0.00 66 1021.7
20260903041103 82 182 1.0 4.0 0.00 0.00 0.00 67 1021.7
20260903041004 82 184 1.0 4.0 0.00 0.00 0.00 67 1021.5
20260903040902 82 184 1.0 4.0 0.00 0.00 0.00 67 1021.7
20260903040801 82 184 1.0 4.0 0.00 0.00 0.00 67 1021.7
20260903040702 82 144 1.0 4.0 0.00 0.00 0.00 66 1021.7
20260903040610 82 207 1.0 4.0 0.00 0.00 0.00 66 1021.7
20260903040556 82 220 1.0 4.0 0.00 0.00 0.00 67 1021.7
20260903040533 82 220 1.0 4.0 0.00 0.00 0.00 66 1021.7
20260903040309 82 113 1.0 4.0 0.00 0.00 0.00 67 1021.7
20260903040202 82 165 1.0 3.0 0.00 0.00 0.00 67 1021.7
20260903040104 82 175 1.0 3.0 0.00 0.00 0.00 67 1021.7
20260903040038 82 174 1.0 4.0 0.00 0.00 0.00 68 1021.7
20260903040027 82 175 1.0 4.0 0.00 0.00 0.00 68 1021.7
20260903035800 82 174 1.0 4.0 0.00 0.00 0.00 68 1021.7
20260903035735 82 124 1.0 4.0 0.00 0.00 0.00 68 1021.7
20260903035653 82 138 1.0 4.0 0.00 0.00 0.00 67 1021.7
20260903035635 82 139 1.0 4.0 0.00 0.00 0.00 68 1021.7
20260903035359 82 138 1.0 4.0 0.00 0.00 0.00 67 1021.5
20260903035301 82 138 1.0 4.0 0.00 0.00 0.00 67 1021.5
20260903035156 82 130 1.0 4.0 0.00 0.00 0.00 67 1021.7
20260903035054 82 166 1.0 6.0 0.00 0.00 0.00 67 1021.7
20260903034956 82 125 1.0 6.0 0.00 0.00 0.00 67 1021.7
20260903034944 82 155 2.0 6.0 0.00 0.00 0.00 67 1021.7
20260903034926 82 159 1.0 6.0 0.00 0.00 0.00 67 1021.7
20260903034654 82 165 2.0 6.0 0.00 0.00 0.00 67 1021.7
20260903034553 82 146 2.0 6.0 0.00 0.00 0.00 67 1021.7
20260903034459 82 146 2.0 6.0 0.00 0.00 0.00 67 1021.7
20260903034357 82 171 2.0 6.0 0.00 0.00 0.00 67 1021.7
20260903034259 82 113 2.0 6.0 0.00 0.00 0.00 67 1021.7
20260903034154 82 167 2.0 6.0 0.00 0.00 0.00 67 1021.7
20260903034055 82 135 2.0 4.0 0.00 0.00 0.00 67 1021.7
20260903033954 82 118 2.0 6.0 0.00 0.00 0.00 67 1021.7
20260903033855 82 136 2.0 6.0 0.00 0.00 0.00 67 1021.7
20260903033754 82 129 2.0 6.0 0.00 0.00 0.00 67 1021.7
20260903033709 82 125 2.0 6.0 0.00 0.00 0.00 67 1021.7
20260903033603 82 103 2.0 6.0 0.00 0.00 0.00 67 1021.8
20260903033456 82 130 2.0 6.0 0.00 0.00 0.00 67 1021.7
20260903033352 82 184 2.0 6.0 0.00 0.00 0.00 67 1021.7
20260903033253 82 89 2.0 6.0 0.00 0.00 0.00 67 1021.8
20260903033150 82 118 2.0 6.0 0.00 0.00 0.00 67 1021.7
20260903033057 82 107 2.0 6.0 0.00 0.00 0.00 67 1021.8
20260903033030 82 170 2.0 7.0 0.00 0.00 0.00 67 1021.8
20260903033015 82 92 2.0 7.0 0.00 0.00 0.00 67 1021.8
20260903032757 82 119 2.0 7.0 0.00 0.00 0.00 67 1021.8
20260903032713 83 174 2.0 8.0 0.00 0.00 0.00 66 1021.8
20260903032707 82 96 2.0 7.0 0.00 0.00 0.00 67 1021.8
20260903032650 82 129 2.0 7.0 0.00 0.00 0.00 67 1021.9
20260903032627 82 186 2.0 7.0 0.00 0.00 0.00 67 1021.8
20260903032435 83 95 2.0 8.0 0.00 0.00 0.00 67 1021.8
20260903032317 83 124 2.0 8.0 0.00 0.00 0.00 66 1021.8
20260903032305 83 115 2.0 8.0 0.00 0.00 0.00 67 1021.8
20260903032235 83 192 2.0 8.0 0.00 0.00 0.00 66 1021.8
20260903031838 83 115 2.0 8.0 0.00 0.00 0.00 66 1021.9
20260903031819 83 99 2.0 8.0 0.00 0.00 0.00 66 1021.9
20260903031805 83 111 2.0 8.0 0.00 0.00 0.00 66 1021.8
20260903031532 83 117 2.0 8.0 0.00 0.00 0.00 66 1021.9
20260903031524 83 136 2.0 6.0 0.00 0.00 0.00 66 1021.9
20260903031507 83 95 2.0 8.0 0.00 0.00 0.00 66 1021.9
20260903031244 83 136 2.0 6.0 0.00 0.00 0.00 66 1021.9
20260903031134 83 179 2.0 6.0 0.00 0.00 0.00 66 1021.9
20260903031030 83 203 2.0 7.0 0.00 0.00 0.00 66 1021.9
20260903030932 83 105 2.0 10.0 0.00 0.00 0.00 66 1021.9
20260903030837 83 148 2.0 10.0 0.00 0.00 0.00 66 1021.9
20260903030804 83 113 2.0 10.0 0.00 0.00 0.00 65 1021.9
20260903030751 83 121 2.0 10.0 0.00 0.00 0.00 65 1021.9
20260903030524 83 135 1.0 10.0 0.00 0.00 0.00 65 1021.9
20260903030425 83 122 1.0 10.0 0.00 0.00 0.00 65 1021.9
20260903030329 83 88 1.0 10.0 0.00 0.00 0.00 65 1021.9
20260903030224 83 85 1.0 10.0 0.00 0.00 0.00 65 1021.9
20260903030148 83 113 1.0 7.0 0.00 0.00 0.00 65 1022.0
20260903030142 83 107 1.0 7.0 0.00 0.00 0.00 65 1021.9
20260903030131 83 78 1.0 10.0 0.00 0.00 0.00 65 1022.0
20260903030109 83 74 1.0 7.0 0.00 0.00 0.00 65 1022.0
20260903025718 83 121 1.0 7.0 0.00 0.00 0.00 65 1022.0
20260903025613 83 121 1.0 6.0 0.00 0.00 0.00 65 1021.9
20260903025513 83 121 2.0 6.0 0.00 0.00 0.00 64 1021.9
20260903025445 83 117 2.0 6.0 0.00 0.00 0.00 64 1022.0
20260903025433 83 117 2.0 6.0 0.00 0.00 0.00 65 1021.9
20260903025214 83 110 2.0 6.0 0.00 0.00 0.00 64 1022.0
20260903025113 83 121 2.0 6.0 0.00 0.00 0.00 64 1022.0
20260903025105 83 123 2.0 6.0 0.00 0.00 0.00 64 1022.0
20260903025101 83 97 2.0 6.0 0.00 0.00 0.00 64 1022.0
20260903025055 83 105 2.0 6.0 0.00 0.00 0.00 64 1021.9
20260903025042 83 121 2.0 6.0 0.00 0.00 0.00 65 1022.0
20260903024851 83 116 2.0 6.0 0.00 0.00 0.00 64 1022.0
20260903024505 83 105 2.0 6.0 0.00 0.00 0.00 64 1022.0
20260903024402 83 92 2.0 6.0 0.00 0.00 0.00 64 1022.0
20260903024300 83 99 2.0 6.0 0.00 0.00 0.00 64 1021.9
20260903024245 83 119 2.0 6.0 0.00 0.00 0.00 64 1021.9
20260903024230 83 92 2.0 6.0 0.00 0.00 0.00 64 1021.9
20260903023958 83 120 2.0 4.0 0.00 0.00 0.00 64 1021.9
20260903023910 83 125 2.0 4.0 0.00 0.00 0.00 64 1021.9
20260903023858 83 120 2.0 4.0 0.00 0.00 0.00 64 1021.9
20260903023850 83 114 1.0 4.0 0.00 0.00 0.00 64 1021.8
20260903023846 83 80 2.0 4.0 0.00 0.00 0.00 64 1021.9
20260903023832 83 126 2.0 4.0 0.00 0.00 0.00 64 1021.9
20260903023638 83 119 2.0 4.0 0.00 0.00 0.00 64 1021.8
20260903023252 83 78 2.0 4.0 0.00 0.00 0.00 64 1021.9
20260903023150 83 76 2.0 4.0 0.00 0.00 0.00 64 1021.9
20260903023123 83 86 2.0 4.0 0.00 0.00 0.00 64 1022.0
20260903023114 83 113 2.0 4.0 0.00 0.00 0.00 64 1021.9
20260903022852 83 84 2.0 4.0 0.00 0.00 0.00 64 1021.9
20260903022753 83 82 2.0 4.0 0.00 0.00 0.00 64 1021.9
20260903022649 83 92 2.0 4.0 0.00 0.00 0.00 64 1021.9
20260903022638 83 109 2.0 4.0 0.00 0.00 0.00 64 1022.0
20260903022632 83 115 2.0 4.0 0.00 0.00 0.00 64 1022.0
20260903022618 83 99 2.0 4.0 0.00 0.00 0.00 64 1021.9
20260903022553 83 96 2.0 4.0 0.00 0.00 0.00 64 1021.9
20260903022441 83 117 2.0 4.0 0.00 0.00 0.00 64 1022.0
20260903022434 83 100 2.0 4.0 0.00 0.00 0.00 64 1021.9
20260903022415 83 96 2.0 4.0 0.00 0.00 0.00 64 1021.9
20260903022353 83 74 2.0 4.0 0.00 0.00 0.00 64 1021.9
20260903022042 83 117 2.0 4.0 0.00 0.00 0.00 64 1021.9
20260903021928 83 113 2.0 4.0 0.00 0.00 0.00 64 1021.9
20260903021912 83 100 2.0 4.0 0.00 0.00 0.00 64 1021.9
20260903021852 83 100 2.0 4.0 0.00 0.00 0.00 64 1021.9
20260903021415 83 87 2.0 4.0 0.00 0.00 0.00 64 1021.9
20260903021405 83 87 2.0 4.0 0.00 0.00 0.00 64 1021.9
20260903021136 83 86 1.0 4.0 0.00 0.00 0.00 64 1021.9
20260903021034 83 98 1.0 4.0 0.00 0.00 0.00 64 1021.8
20260903020934 83 61 1.0 5.0 0.00 0.00 0.00 64 1021.9
20260903020834 83 61 1.0 5.0 0.00 0.00 0.00 64 1021.9
20260903020732 83 61 1.0 5.0 0.00 0.00 0.00 64 1021.9
20260903020625 83 96 1.0 5.0 0.00 0.00 0.00 64 1021.9
20260903020522 83 96 1.0 5.0 0.00 0.00 0.00 64 1021.9
20260903020423 83 96 1.0 5.0 0.00 0.00 0.00 63 1021.9
20260903020323 83 101 1.0 5.0 0.00 0.00 0.00 63 1021.9
20260903020226 83 65 1.0 5.0 0.00 0.00 0.00 63 1021.9
20260903020117 83 65 1.0 5.0 0.00 0.00 0.00 63 1021.8
20260903020015 83 98 1.0 4.0 0.00 0.00 0.00 63 1021.9
20260903015915 83 98 2.0 4.0 0.00 0.00 0.00 63 1021.8
20260903015816 83 99 2.0 4.0 0.00 0.00 0.00 63 1021.8
20260903015717 83 99 2.0 4.0 0.00 0.00 0.00 63 1021.8
20260903015613 83 76 2.0 4.0 0.00 0.00 0.00 63 1021.8
20260903015511 83 76 2.0 4.0 0.00 0.00 0.00 62 1021.8
20260903015410 83 76 1.0 4.0 0.00 0.00 0.00 62 1021.8
20260903015314 83 61 1.0 4.0 0.00 0.00 0.00 62 1021.8
20260903015211 83 61 2.0 4.0 0.00 0.00 0.00 62 1021.7
20260903015058 83 61 2.0 4.0 0.00 0.00 0.00 62 1021.7
20260903014958 83 61 1.0 4.0 0.00 0.00 0.00 62 1021.7
20260903014857 83 90 1.0 4.0 0.00 0.00 0.00 62 1021.7
20260903014756 83 103 1.0 4.0 0.00 0.00 0.00 62 1021.8
20260903014651 84 103 1.0 4.0 0.00 0.00 0.00 62 1021.7
20260903014552 84 146 1.0 4.0 0.00 0.00 0.00 62 1021.7
20260903014449 84 146 1.0 4.0 0.00 0.00 0.00 62 1021.7
20260903014348 84 92 2.0 4.0 0.00 0.00 0.00 61 1021.7
20260903014248 84 92 2.0 4.0 0.00 0.00 0.00 61 1021.7
20260903014226 84 92 2.0 4.0 0.00 0.00 0.00 61 1021.7
20260903014212 84 91 1.0 4.0 0.00 0.00 0.00 61 1021.7
20260903013943 84 92 2.0 4.0 0.00 0.00 0.00 61 1021.8
20260903013844 84 88 2.0 4.0 0.00 0.00 0.00 61 1021.7
20260903013744 84 88 2.0 4.0 0.00 0.00 0.00 61 1021.7
20260903013640 84 88 2.0 5.0 0.00 0.00 0.00 61 1021.7
20260903013533 84 88 2.0 5.0 0.00 0.00 0.00 60 1021.8
20260903013436 84 103 2.0 5.0 0.00 0.00 0.00 60 1021.8
20260903013418 84 99 2.0 5.0 0.00 0.00 0.00 60 1021.8
20260903013402 84 86 2.0 5.0 0.00 0.00 0.00 60 1021.8
20260903013130 84 99 2.0 7.0 0.00 0.00 0.00 60 1021.8
20260903013042 84 87 2.0 7.0 0.00 0.00 0.00 60 1021.7
20260903013028 84 90 2.0 7.0 0.00 0.00 0.00 60 1021.7
20260903013007 84 81 2.0 7.0 0.00 0.00 0.00 60 1021.7
20260903012845 84 81 2.0 7.0 0.00 0.00 0.00 60 1021.7
20260903012623 84 65 2.0 7.0 0.00 0.00 0.00 60 1021.8
20260903012519 84 65 2.0 7.0 0.00 0.00 0.00 60 1021.7
20260903012417 84 65 2.0 7.0 0.00 0.00 0.00 60 1021.7
20260903012319 84 65 2.0 7.0 0.00 0.00 0.00 60 1021.7
20260903012219 84 103 2.0 7.0 0.00 0.00 0.00 60 1021.8
20260903012119 84 95 2.0 4.0 0.00 0.00 0.00 60 1021.7
20260903012019 84 62 2.0 4.0 0.00 0.00 0.00 60 1021.7
20260903011915 84 62 2.0 4.0 0.00 0.00 0.00 59 1021.5
20260903011813 84 62 1.0 4.0 0.00 0.00 0.00 60 1021.5
20260903011713 84 72 1.0 4.0 0.00 0.00 0.00 59 1021.4
20260903011611 84 71 1.0 4.0 0.00 0.00 0.00 59 1021.5
20260903011510 84 72 1.0 4.0 0.00 0.00 0.00 60 1021.5
20260903011446 84 71 1.0 5.0 0.00 0.00 0.00 60 1021.7
20260903011433 84 72 1.0 4.0 0.00 0.00 0.00 59 1021.5
20260903011213 84 67 1.0 5.0 0.00 0.00 0.00 60 1021.5
20260903011107 84 67 1.0 5.0 0.00 0.00 0.00 59 1021.5
20260903011009 84 67 2.0 5.0 0.00 0.00 0.00 60 1021.4
20260903010908 84 67 2.0 5.0 0.00 0.00 0.00 60 1021.4
20260903010807 85 67 2.0 5.0 0.00 0.00 0.00 60 1021.4
20260903010706 84 67 2.0 5.0 0.00 0.00 0.00 60 1021.4
20260903010637 84 66 2.0 5.0 0.00 0.00 0.00 60 1021.4
20260903010626 84 67 2.0 5.0 0.00 0.00 0.00 59 1021.4
20260903010407 84 67 2.0 5.0 0.00 0.00 0.00 60 1021.4
20260903010307 84 77 2.0 4.0 0.00 0.00 0.00 60 1021.5
20260903010203 84 77 2.0 4.0 0.00 0.00 0.00 60 1021.4
20260903010104 84 82 2.0 4.0 0.00 0.00 0.00 60 1021.5
20260903010006 84 82 2.0 4.0 0.00 0.00 0.00 60 1021.5
20260903005904 84 78 2.0 4.0 0.00 0.00 0.00 60 1021.5
20260903005800 84 78 2.0 4.0 0.00 0.00 0.00 60 1021.5
20260903005741 84 78 2.0 4.0 0.00 0.00 0.00 60 1021.4
20260903005726 84 78 2.0 4.0 0.00 0.00 0.00 60 1021.4
20260903005455 84 78 2.0 4.0 0.00 0.00 0.00 60 1021.5
20260903005429 84 78 2.0 4.0 0.00 0.00 0.00 60 1021.4
20260903005418 84 78 2.0 4.0 0.00 0.00 0.00 60 1021.5
20260903005151 84 78 2.0 4.0 0.00 0.00 0.00 60 1021.5
20260903005050 84 78 2.0 4.0 0.00 0.00 0.00 60 1021.4
20260903004950 84 77 2.0 4.0 0.00 0.00 0.00 60 1021.4
20260903004847 84 77 2.0 4.0 0.00 0.00 0.00 60 1021.4
20260903004819 84 77 2.0 4.0 0.00 0.00 0.00 60 1021.3
20260903004807 84 77 2.0 4.0 0.00 0.00 0.00 60 1021.3
20260903004545 84 77 2.0 4.0 0.00 0.00 0.00 60 1021.3
20260903004443 84 70 2.0 3.0 0.00 0.00 0.00 60 1021.3
20260903004344 84 70 2.0 3.0 0.00 0.00 0.00 60 1021.4
20260903004244 84 70 2.0 4.0 0.00 0.00 0.00 60 1021.4
20260903004138 84 70 2.0 4.0 0.00 0.00 0.00 60 1021.3
20260903004041 84 65 1.0 4.0 0.00 0.00 0.00 60 1021.4
20260903003936 84 65 2.0 4.0 0.00 0.00 0.00 60 1021.4
20260903003836 84 65 2.0 4.0 0.00 0.00 0.00 59 1021.3
20260903003744 84 65 2.0 4.0 0.00 0.00 0.00 59 1021.4
20260903003639 84 65 2.0 4.0 0.00 0.00 0.00 60 1021.4
20260903003540 84 65 2.0 4.0 0.00 0.00 0.00 60 1021.4
20260903003435 84 65 2.0 4.0 0.00 0.00 0.00 59 1021.3
20260903003335 84 65 2.0 4.0 0.00 0.00 0.00 59 1021.4
20260903003236 84 71 2.0 4.0 0.00 0.00 0.00 59 1021.4
20260903003137 84 71 2.0 4.0 0.00 0.00 0.00 59 1021.4
20260903003035 84 71 2.0 4.0 0.00 0.00 0.00 59 1021.4
20260903002933 84 82 2.0 4.0 0.00 0.00 0.00 59 1021.4
20260903002912 84 82 2.0 4.0 0.00 0.00 0.00 60 1021.4
20260903002906 85 82 2.0 4.0 0.00 0.00 0.00 60 1021.5
20260903002854 84 82 2.0 4.0 0.00 0.00 0.00 59 1021.5
20260903002723 85 82 2.0 4.0 0.00 0.00 0.00 60 1021.4
20260903002707 85 82 2.0 4.0 0.00 0.00 0.00 59 1021.5
20260903002325 85 63 2.0 4.0 0.00 0.00 0.00 60 1021.5
20260903002224 85 63 2.0 4.0 0.00 0.00 0.00 60 1021.4
20260903002125 85 63 2.0 4.0 0.00 0.00 0.00 60 1021.5
20260903002052 85 63 2.0 4.0 0.00 0.00 0.00 60 1021.5
20260903002038 85 63 2.0 4.0 0.00 0.00 0.00 60 1021.5
20260903001813 85 63 2.0 4.0 0.00 0.00 0.00 60 1021.7
20260903001711 85 60 2.0 4.0 0.00 0.00 0.00 60 1021.5
20260903001609 85 54 2.0 4.0 0.00 0.00 0.00 60 1021.5
20260903001505 85 63 2.0 3.0 0.00 0.00 0.00 61 1021.4
20260903001405 85 63 2.0 3.0 0.00 0.00 0.00 60 1021.5
20260903001306 85 63 2.0 3.0 0.00 0.00 0.00 60 1021.5
20260903001204 85 63 2.0 3.0 0.00 0.00 0.00 61 1021.5
20260903001139 85 63 2.0 3.0 0.00 0.00 0.00 60 1021.4
20260903001127 85 63 2.0 3.0 0.00 0.00 0.00 61 1021.5
20260903000903 85 69 2.0 3.0 0.00 0.00 0.00 61 1021.5
20260903000803 85 69 2.0 4.0 0.00 0.00 0.00 60 1021.5
20260903000702 85 69 2.0 4.0 0.00 0.00 0.00 60 1021.5
20260903000600 85 69 2.0 4.0 0.00 0.00 0.00 60 1021.5
20260903000454 85 69 2.0 4.0 0.00 0.00 0.00 60 1021.5
20260903000432 85 73 1.0 4.0 0.00 0.00 0.00 60 1021.5
20260903000417 85 69 2.0 4.0 0.00 0.00 0.00 60 1021.4
20260903000151 85 73 2.0 4.0 0.00 0.00 0.00 60 1021.5
20260903000051 85 70 2.0 4.0 0.00 0.00 0.00 60 1021.4
20260902235953 85 70 1.0 4.0 0.00 0.00 0.00 60 1021.5
20260902235857 85 70 1.0 4.0 0.00 0.00 0.00 60 1021.5
20260902235749 85 63 1.0 4.0 0.00 0.00 0.00 60 1021.4
20260902235651 85 63 1.0 4.0 0.00 0.00 0.00 60 1021.5
20260902235617 85 49 1.0 3.0 0.00 0.00 0.00 60 1021.5
20260902235608 85 63 1.0 4.0 0.00 0.00 0.00 60 1021.5
20260902235419 85 49 1.0 3.0 0.00 0.00 0.00 60 1021.4
20260902235407 85 49 1.0 3.0 0.00 0.00 0.00 60 1021.4
20260902235142 85 49 1.0 3.0 0.00 0.00 0.00 59 1021.4
20260902235055 85 48 1.0 4.0 0.00 0.00 0.00 60 1021.4
20260902234939 85 48 1.0 4.0 0.00 0.00 0.00 59 1021.4
20260902234837 85 48 1.0 4.0 0.00 0.00 0.00 59 1021.4
20260902234814 85 47 1.0 4.0 0.00 0.00 0.00 59 1021.4
20260902234801 85 47 1.0 4.0 0.00 0.00 0.00 59 1021.4
20260902234605 85 47 2.0 4.0 0.00 0.00 0.00 59 1021.4
20260902234555 85 47 2.0 4.0 0.00 0.00 0.00 59 1021.3
20260902234336 85 47 2.0 4.0 0.00 0.00 0.00 59 1021.4
20260902234328 86 92 2.0 4.0 0.00 0.00 0.00 59 1021.4
20260902234305 85 47 2.0 4.0 0.00 0.00 0.00 59 1021.4
20260902234133 85 46 2.0 4.0 0.00 0.00 0.00 59 1021.4
20260902234126 86 92 2.0 4.0 0.00 0.00 0.00 59 1021.5
20260902234108 86 92 2.0 4.0 0.00 0.00 0.00 59 1021.4
20260902233727 86 92 2.0 4.0 0.00 0.00 0.00 59 1021.5
20260902233624 86 101 1.0 4.0 0.00 0.00 0.00 59 1021.5
20260902233602 86 99 1.0 4.0 0.00 0.00 0.00 59 1021.5
20260902233549 86 101 1.0 4.0 0.00 0.00 0.00 58 1021.5
20260902233325 86 99 1.0 4.0 0.00 0.00 0.00 59 1021.5
20260902233219 86 99 1.0 4.0 0.00 0.00 0.00 59 1021.5
20260902233152 86 99 1.0 4.0 0.00 0.00 0.00 59 1021.5
20260902233142 86 99 1.0 4.0 0.00 0.00 0.00 59 1021.5
20260902232926 86 103 1.0 4.0 0.00 0.00 0.00 58 1021.5
20260902232818 86 103 1.0 4.0 0.00 0.00 0.00 59 1021.5
20260902232717 86 103 1.0 4.0 0.00 0.00 0.00 58 1021.5
20260902232701 86 103 2.0 4.0 0.00 0.00 0.00 59 1021.5
20260902232646 86 103 1.0 4.0 0.00 0.00 0.00 58 1021.5
20260902232452 86 103 2.0 4.0 0.00 0.00 0.00 57 1021.5
20260902232439 86 103 2.0 4.0 0.00 0.00 0.00 59 1021.5
20260902232244 86 103 2.0 4.0 0.00 0.00 0.00 58 1021.5
20260902232230 86 103 2.0 4.0 0.00 0.00 0.00 58 1021.5
20260902232003 86 103 2.0 4.0 0.00 0.00 0.00 58 1021.5
20260902231905 86 86 2.0 3.0 0.00 0.00 0.00 57 1021.5
20260902231805 86 82 2.0 3.0 0.00 0.00 0.00 58 1021.4
20260902231703 86 105 2.0 6.0 0.00 0.00 0.00 58 1021.5
20260902231559 86 105 2.0 6.0 0.00 0.00 0.00 58 1021.5
20260902231459 86 109 2.0 6.0 0.00 0.00 0.00 58 1021.5
20260902231357 86 105 2.0 6.0 0.00 0.00 0.00 58 1021.5
20260902231259 86 102 2.0 6.0 0.00 0.00 0.00 58 1021.5
20260902231159 87 102 2.0 6.0 0.00 0.00 0.00 57 1021.5
20260902231058 86 101 2.0 6.0 0.00 0.00 0.00 58 1021.5
20260902230955 86 102 2.0 6.0 0.00 0.00 0.00 57 1021.4
20260902230855 87 116 2.0 6.0 0.00 0.00 0.00 57 1021.5
20260902230834 87 123 2.0 4.0 0.00 0.00 0.00 57 1021.5
20260902230819 87 117 2.0 6.0 0.00 0.00 0.00 58 1021.5
20260902230556 87 124 2.0 4.0 0.00 0.00 0.00 57 1021.5
20260902230455 87 132 2.0 4.0 0.00 0.00 0.00 57 1021.5
20260902230352 87 122 1.0 4.0 0.00 0.00 0.00 57 1021.5
20260902230254 87 122 1.0 4.0 0.00 0.00 0.00 58 1021.5
20260902230155 87 103 1.0 4.0 0.00 0.00 0.00 58 1021.5
20260902230059 87 103 2.0 4.0 0.00 0.00 0.00 59 1021.5
20260902230022 87 103 2.0 4.0 0.00 0.00 0.00 58 1021.5
20260902230013 87 103 2.0 4.0 0.00 0.00 0.00 58 1021.5
20260902225753 87 113 2.0 3.0 0.00 0.00 0.00 58 1021.7
20260902225652 87 113 2.0 3.0 0.00 0.00 0.00 58 1021.5
20260902225549 87 113 2.0 4.0 0.00 0.00 0.00 58 1021.7
20260902225447 87 94 2.0 6.0 0.00 0.00 0.00 58 1021.7
20260902225346 87 120 2.0 6.0 0.00 0.00 0.00 58 1021.7
20260902225246 87 120 2.0 6.0 0.00 0.00 0.00 58 1021.5
20260902225144 87 119 2.0 6.0 0.00 0.00 0.00 58 1021.7
20260902225105 87 99 2.0 6.0 0.00 0.00 0.00 57 1021.7
20260902225059 87 100 2.0 6.0 0.00 0.00 0.00 58 1021.7
20260902225049 87 99 2.0 6.0 0.00 0.00 0.00 58 1021.7
20260902225032 87 99 2.0 6.0 0.00 0.00 0.00 57 1021.7
20260902224640 87 112 2.0 6.0 0.00 0.00 0.00 57 1021.7
20260902224543 87 111 2.0 6.0 0.00 0.00 0.00 57 1021.7
20260902224523 87 114 2.0 4.0 0.00 0.00 0.00 58 1021.7
20260902224508 87 90 2.0 4.0 0.00 0.00 0.00 58 1021.7
20260902224238 87 114 2.0 4.0 0.00 0.00 0.00 58 1021.7
20260902224137 87 113 2.0 6.0 0.00 0.00 0.00 58 1021.5
20260902224036 87 86 2.0 6.0 0.00 0.00 0.00 57 1021.5
20260902223937 87 113 2.0 6.0 0.00 0.00 0.00 58 1021.7
20260902223909 87 105 2.0 6.0 0.00 0.00 0.00 58 1021.7
20260902223857 87 105 2.0 6.0 0.00 0.00 0.00 58 1021.8
20260902223631 87 106 2.0 6.0 0.00 0.00 0.00 58 1021.7
20260902223533 87 103 2.0 6.0 0.00 0.00 0.00 58 1021.7
20260902223432 87 103 2.0 6.0 0.00 0.00 0.00 57 1021.7
20260902223422 88 113 1.0 6.0 0.00 0.00 0.00 57 1021.5
20260902223359 87 104 2.0 6.0 0.00 0.00 0.00 57 1021.7
20260902223225 87 103 2.0 6.0 0.00 0.00 0.00 57 1021.7
20260902223159 88 113 2.0 6.0 0.00 0.00 0.00 58 1021.7
20260902223043 88 119 1.0 6.0 0.00 0.00 0.00 57 1021.5
20260902223027 88 113 2.0 6.0 0.00 0.00 0.00 57 1021.7
20260902223001 88 113 2.0 6.0 0.00 0.00 0.00 57 1021.7
20260902222612 88 90 1.0 6.0 0.00 0.00 0.00 57 1021.7
20260902222512 88 83 2.0 6.0 0.00 0.00 0.00 57 1021.5
20260902222451 88 118 2.0 4.0 0.00 0.00 0.00 57 1021.7
20260902222441 88 105 2.0 4.0 0.00 0.00 0.00 58 1021.7
20260902222208 88 63 2.0 4.0 0.00 0.00 0.00 57 1021.7
20260902222107 88 63 2.0 4.0 0.00 0.00 0.00 57 1021.7
20260902222009 88 63 2.0 4.0 0.00 0.00 0.00 58 1021.7
20260902221904 88 63 2.0 4.0 0.00 0.00 0.00 57 1021.7
20260902221805 88 63 3.0 5.0 0.00 0.00 0.00 58 1021.7
20260902221655 88 63 3.0 5.0 0.00 0.00 0.00 57 1021.7
20260902221629 88 62 3.0 5.0 0.00 0.00 0.00 57 1021.7
20260902221618 88 64 3.0 5.0 0.00 0.00 0.00 57 1021.7
20260902221353 88 62 3.0 5.0 0.00 0.00 0.00 57 1021.8
20260902221251 88 55 3.0 5.0 0.00 0.00 0.00 57 1021.7
20260902221145 88 47 3.0 5.0 0.00 0.00 0.00 57 1021.8
20260902221058 88 65 3.0 6.0 0.00 0.00 0.00 57 1021.7
20260902220946 88 62 3.0 6.0 0.00 0.00 0.00 56 1021.7
20260902220843 88 63 3.0 6.0 0.00 0.00 0.00 56 1021.5
20260902220745 88 40 3.0 6.0 0.00 0.00 0.00 56 1021.8
20260902220640 88 56 3.0 6.0 0.00 0.00 0.00 56 1021.7
20260902220537 89 57 3.0 6.0 0.00 0.00 0.00 56 1021.7
20260902220437 89 60 3.0 7.0 0.00 0.00 0.00 56 1021.8
20260902220334 89 60 4.0 7.0 0.00 0.00 0.00 56 1021.7
20260902220238 89 98 3.0 7.0 0.00 0.00 0.00 55 1021.8
20260902220133 89 77 3.0 7.0 0.00 0.00 0.00 55 1021.8
20260902220033 89 74 3.0 7.0 0.00 0.00 0.00 54 1021.8
20260902215932 89 63 3.0 7.0 0.00 0.00 0.00 54 1021.8
20260902215834 89 44 3.0 7.0 0.00 0.00 0.00 55 1021.8
20260902215810 90 80 2.0 7.0 0.00 0.00 0.00 55 1021.8
20260902215757 89 55 3.0 7.0 0.00 0.00 0.00 56 1021.8
20260902215533 90 79 2.0 7.0 0.00 0.00 0.00 54 1021.8
20260902215434 90 69 2.0 6.0 0.00 0.00 0.00 55 1021.8
20260902215332 90 49 2.0 6.0 0.00 0.00 0.00 55 1021.8
20260902215233 90 67 1.0 6.0 0.00 0.00 0.00 54 1021.8
20260902215210 91 52 1.0 4.0 0.00 0.00 0.00 54 1021.8
20260902215158 90 71 1.0 4.0 0.00 0.00 0.00 54 1021.7
20260902215001 91 51 1.0 5.0 0.00 0.00 0.00 53 1021.8
20260902214946 91 52 1.0 4.0 0.00 0.00 0.00 54 1021.8
20260902214921 91 52 1.0 4.0 0.00 0.00 0.00 55 1021.8
20260902214750 91 52 1.0 4.0 0.00 0.00 0.00 55 1021.8
20260902214528 91 52 1.0 5.0 0.00 0.00 0.00 53 1021.8
20260902214429 91 48 1.0 5.0 0.00 0.00 0.00 55 1021.8
20260902214330 91 45 2.0 6.0 0.00 0.00 0.00 54 1021.8
20260902214232 91 45 2.0 6.0 0.00 0.00 0.00 54 1021.8
20260902214208 91 45 3.0 8.0 0.00 0.00 0.00 54 1021.8
20260902214156 91 45 2.0 8.0 0.00 0.00 0.00 54 1021.8
20260902213928 91 44 3.0 8.0 0.00 0.00 0.00 54 1021.8
20260902213825 90 44 3.0 8.0 0.00 0.00 0.00 54 1021.8
20260902213726 91 44 3.0 8.0 0.00 0.00 0.00 55 1021.7
20260902213627 90 53 3.0 8.0 0.00 0.00 0.00 55 1021.7
20260902213529 90 100 3.0 8.0 0.00 0.00 0.00 55 1021.7
20260902213427 90 97 3.0 8.0 0.00 0.00 0.00 54 1021.8
20260902213325 90 100 3.0 9.0 0.00 0.00 0.00 54 1021.7
20260902213310 90 73 2.0 9.0 0.00 0.00 0.00 54 1021.8
20260902213254 90 70 3.0 9.0 0.00 0.00 0.00 55 1021.7
20260902213218 90 53 2.0 9.0 0.00 0.00 0.00 55 1021.8
20260902213053 90 85 2.0 9.0 0.00 0.00 0.00 54 1021.8
20260902212836 90 57 2.0 9.0 0.00 0.00 0.00 54 1021.7
20260902212824 90 91 2.0 9.0 0.00 0.00 0.00 54 1021.8
20260902212756 90 55 2.0 9.0 0.00 0.00 0.00 54 1021.8
20260902212730 90 45 2.0 9.0 0.00 0.00 0.00 54 1021.7
20260902212559 90 34 2.0 9.0 0.00 0.00 0.00 54 1021.7
20260902212327 90 94 2.0 5.0 0.00 0.00 0.00 54 1021.7
20260902212225 90 94 2.0 5.0 0.00 0.00 0.00 54 1021.7
20260902212131 90 94 2.0 5.0 0.00 0.00 0.00 54 1021.8
20260902212027 91 355 2.0 5.0 0.00 0.00 0.00 53 1021.8
20260902211925 91 355 2.0 6.0 0.00 0.00 0.00 53 1021.8
20260902211824 91 355 2.0 6.0 0.00 0.00 0.00 53 1021.8
20260902211727 91 355 2.0 6.0 0.00 0.00 0.00 52 1021.9
20260902211701 91 347 2.0 6.0 0.00 0.00 0.00 55 1021.9
20260902211644 91 355 2.0 6.0 0.00 0.00 0.00 53 1021.9
20260902211418 91 17 2.0 6.0 0.00 0.00 0.00 55 1021.9
20260902211328 91 30 2.0 6.0 0.00 0.00 0.00 55 1021.9
20260902211216 91 30 2.0 6.0 0.00 0.00 0.00 53 1021.9
20260902211112 91 316 2.0 6.0 0.00 0.00 0.00 53 1021.9
20260902211014 91 321 2.0 6.0 0.00 0.00 0.00 53 1021.9
20260902210912 91 11 2.0 4.0 0.00 0.00 0.00 53 1022.0
20260902210836 91 35 2.0 4.0 0.00 0.00 0.00 53 1022.0
20260902210830 90 35 2.0 4.0 0.00 0.00 0.00 54 1021.9
20260902210820 91 11 2.0 4.0 0.00 0.00 0.00 53 1021.9
20260902210756 91 11 2.0 4.0 0.00 0.00 0.00 54 1022.0
20260902210414 90 35 2.0 4.0 0.00 0.00 0.00 54 1022.0
20260902210315 90 355 2.0 4.0 0.00 0.00 0.00 53 1022.0
20260902210212 90 355 2.0 4.0 0.00 0.00 0.00 53 1022.0
20260902210114 90 47 2.0 4.0 0.00 0.00 0.00 54 1022.1
20260902210015 90 54 2.0 4.0 0.00 0.00 0.00 55 1022.1
20260902205912 90 42 2.0 4.0 0.00 0.00 0.00 55 1022.1
20260902205812 90 34 2.0 4.0 0.00 0.00 0.00 55 1022.1
20260902205805 90 75 2.0 4.0 0.00 0.00 0.00 56 1022.1
20260902205801 90 77 2.0 4.0 0.00 0.00 0.00 56 1022.1
20260902205755 89 311 2.0 4.0 0.00 0.00 0.00 58 1022.0
20260902205749 89 311 2.0 4.0 0.00 0.00 0.00 58 1022.1
20260902205737 90 34 2.0 4.0 0.00 0.00 0.00 55 1022.1
20260902205716 90 38 2.0 4.0 0.00 0.00 0.00 55 1022.1
20260902205400 89 65 2.0 4.0 0.00 0.00 0.00 57 1022.1
20260902205009 89 79 2.0 6.0 0.00 0.00 0.00 58 1022.1
20260902204911 89 60 2.0 6.0 0.00 0.00 0.00 56 1022.0
20260902204808 89 327 2.0 6.0 0.00 0.00 0.00 56 1022.0
20260902204710 89 327 2.0 6.0 0.00 0.00 0.00 56 1022.0
20260902204612 88 327 2.0 6.0 0.00 0.00 0.00 57 1022.1
20260902204510 88 327 2.0 6.0 0.00 0.00 0.00 58 1022.1
20260902204410 88 306 2.0 6.0 0.00 0.00 0.00 59 1022.1
20260902204309 88 75 2.0 6.0 0.00 0.00 0.00 59 1022.1
20260902204207 87 74 2.0 6.0 0.00 0.00 0.00 59 1022.1
20260902204104 87 63 2.0 6.0 0.00 0.00 0.00 59 1022.1
20260902204035 87 37 2.0 3.0 0.00 0.00 0.00 61 1022.1
20260902204025 87 64 1.0 4.0 0.00 0.00 0.00 60 1022.1
20260902203759 87 37 2.0 4.0 0.00 0.00 0.00 61 1022.1
20260902203700 86 37 2.0 4.0 0.00 0.00 0.00 61 1022.2
20260902203559 86 30 2.0 4.0 0.00 0.00 0.00 61 1022.2
20260902203500 86 30 2.0 4.0 0.00 0.00 0.00 60 1022.2
20260902203401 86 30 2.0 4.0 0.00 0.00 0.00 62 1022.1
20260902203257 86 30 2.0 5.0 0.00 0.00 0.00 61 1022.2
20260902203232 85 33 2.0 5.0 0.00 0.00 0.00 62 1022.3
20260902203221 85 33 2.0 5.0 0.00 0.00 0.00 61 1022.2
20260902202957 85 65 2.0 5.0 0.00 0.00 0.00 63 1022.3
20260902202853 85 65 2.0 5.0 0.00 0.00 0.00 63 1022.2
20260902202758 85 65 2.0 5.0 0.00 0.00 0.00 62 1022.3
20260902202652 85 63 2.0 5.0 0.00 0.00 0.00 62 1022.3
20260902202626 85 63 2.0 5.0 0.00 0.00 0.00 62 1022.3
20260902202613 85 63 2.0 5.0 0.00 0.00 0.00 62 1022.2
20260902202347 85 62 2.0 5.0 0.00 0.00 0.00 63 1022.4
20260902202247 85 52 2.0 5.0 0.00 0.00 0.00 62 1022.3
20260902202148 85 75 2.0 5.0 0.00 0.00 0.00 63 1022.3
20260902202047 85 75 2.0 5.0 0.00 0.00 0.00 62 1022.4
20260902201946 85 74 2.0 5.0 0.00 0.00 0.00 62 1022.4
20260902201847 85 60 2.0 5.0 0.00 0.00 0.00 64 1022.3
20260902201746 85 55 2.0 5.0 0.00 0.00 0.00 64 1022.4
20260902201644 85 64 2.0 5.0 0.00 0.00 0.00 64 1022.4
20260902201542 85 64 2.0 5.0 0.00 0.00 0.00 64 1022.4
20260902201440 85 65 2.0 3.0 0.00 0.00 0.00 65 1022.4
20260902201340 85 11 1.0 3.0 0.00 0.00 0.00 66 1022.4
20260902201312 85 5 1.0 3.0 0.00 0.00 0.00 65 1022.5
20260902201303 85 5 1.0 3.0 0.00 0.00 0.00 65 1022.4
20260902201046 85 5 1.0 3.0 0.00 0.00 0.00 63 1022.5
20260902200942 85 5 1.0 3.0 0.00 0.00 0.00 64 1022.5
20260902200854 86 38 1.0 4.0 0.00 0.00 0.00 63 1022.5
20260902200842 85 0 1.0 3.0 0.00 0.00 0.00 63 1022.4
20260902200818 85 0 1.0 3.0 0.00 0.00 0.00 63 1022.5
20260902200650 85 0 1.0 3.0 0.00 0.00 0.00 63 1022.4
20260902200627 86 36 1.0 3.0 0.00 0.00 0.00 63 1022.4
20260902200504 86 38 1.0 3.0 0.00 0.00 0.00 63 1022.5
20260902200238 86 45 1.0 5.0 0.00 0.00 0.00 62 1022.5
20260902200138 86 45 1.0 5.0 0.00 0.00 0.00 63 1022.5
20260902200038 86 45 1.0 5.0 0.00 0.00 0.00 63 1022.6
20260902195939 86 59 2.0 5.0 0.00 0.00 0.00 63 1022.5
20260902195835 86 34 2.0 7.0 0.00 0.00 0.00 63 1022.5
20260902195732 86 34 2.0 7.0 0.00 0.00 0.00 63 1022.5
20260902195633 86 35 2.0 7.0 0.00 0.00 0.00 62 1022.6
20260902195600 87 46 2.0 7.0 0.00 0.00 0.00 61 1022.6
20260902195555 87 38 2.0 7.0 0.00 0.00 0.00 60 1022.7
20260902195540 87 35 2.0 7.0 0.00 0.00 0.00 63 1022.6
20260902195512 87 57 2.0 7.0 0.00 0.00 0.00 61 1022.6
20260902195205 87 53 3.0 7.0 0.00 0.00 0.00 59 1022.6
20260902195155 87 53 3.0 7.0 0.00 0.00 0.00 60 1022.6
20260902194959 87 53 3.0 5.0 0.00 0.00 0.00 61 1022.7
20260902194950 87 61 3.0 7.0 0.00 0.00 0.00 61 1022.6
20260902194732 87 61 3.0 5.0 0.00 0.00 0.00 63 1022.7
20260902194705 87 30 3.0 5.0 0.00 0.00 0.00 62 1022.7
20260902194653 87 15 3.0 5.0 0.00 0.00 0.00 62 1022.6
20260902194429 87 53 3.0 5.0 0.00 0.00 0.00 61 1022.7
20260902194328 87 61 3.0 5.0 0.00 0.00 0.00 62 1022.7
20260902194230 87 51 3.0 5.0 0.00 0.00 0.00 61 1022.8
20260902194210 88 68 3.0 5.0 0.00 0.00 0.00 62 1022.8
20260902194156 87 50 3.0 5.0 0.00 0.00 0.00 59 1022.8
20260902193924 88 65 3.0 5.0 0.00 0.00 0.00 61 1022.8
20260902193825 88 87 3.0 5.0 0.00 0.00 0.00 60 1022.9
20260902193722 88 55 3.0 5.0 0.00 0.00 0.00 60 1022.8
20260902193616 89 63 3.0 5.0 0.00 0.00 0.00 60 1022.9
20260902193553 89 46 2.0 7.0 0.00 0.00 0.00 57 1022.8
20260902193542 89 67 3.0 7.0 0.00 0.00 0.00 57 1022.9
20260902193317 89 55 2.0 7.0 0.00 0.00 0.00 57 1022.9
20260902193214 89 71 2.0 7.0 0.00 0.00 0.00 57 1023.0
20260902193109 90 62 2.0 7.0 0.00 0.00 0.00 56 1022.9
20260902193008 90 46 3.0 7.0 0.00 0.00 0.00 56 1022.9
20260902192943 91 46 2.0 7.0 0.00 0.00 0.00 54 1022.9
20260902192931 90 46 3.0 7.0 0.00 0.00 0.00 54 1022.9
20260902192707 91 88 2.0 7.0 0.00 0.00 0.00 55 1022.9
20260902192612 91 89 2.0 7.0 0.00 0.00 0.00 54 1022.9
20260902192511 91 51 2.0 6.0 0.00 0.00 0.00 54 1022.9
20260902192411 92 59 2.0 6.0 0.00 0.00 0.00 54 1022.9
20260902192307 92 59 2.0 6.0 0.00 0.00 0.00 53 1022.9
20260902192206 92 74 2.0 6.0 0.00 0.00 0.00 53 1022.9
20260902192142 92 75 2.0 6.0 0.00 0.00 0.00 54 1022.9
20260902192129 92 73 2.0 6.0 0.00 0.00 0.00 53 1022.9
20260902192000 92 67 2.0 6.0 0.00 0.00 0.00 55 1022.9
20260902191954 92 103 2.0 6.0 0.00 0.00 0.00 54 1022.9
20260902191938 92 80 2.0 6.0 0.00 0.00 0.00 53 1022.9
20260902191748 92 38 2.0 6.0 0.00 0.00 0.00 55 1022.9
20260902191622 92 298 2.0 6.0 0.00 0.00 0.00 55 1023.0
20260902191358 92 46 2.0 6.0 0.00 0.00 0.00 55 1023.0
20260902191259 91 76 2.0 6.0 0.00 0.00 0.00 55 1022.9
20260902191200 91 80 2.0 6.0 0.00 0.00 0.00 56 1022.9
20260902191132 91 184 2.0 6.0 0.00 0.00 0.00 54 1022.9
20260902191120 91 80 1.0 6.0 0.00 0.00 0.00 54 1022.9
20260902190855 91 167 2.0 6.0 0.00 0.00 0.00 55 1022.9
20260902190759 91 191 1.0 6.0 0.00 0.00 0.00 58 1022.9
20260902190653 90 324 1.0 5.0 0.00 0.00 0.00 57 1023.0
20260902190553 90 324 1.0 5.0 0.00 0.00 0.00 56 1023.0
20260902190507 89 233 2.0 5.0 0.00 0.00 0.00 57 1022.9
20260902190455 90 275 1.0 5.0 0.00 0.00 0.00 56 1023.0
20260902190448 89 14 2.0 5.0 0.00 0.00 0.00 56 1023.0
20260902190429 90 280 2.0 5.0 0.00 0.00 0.00 56 1022.9
20260902190050 89 14 2.0 5.0 0.00 0.00 0.00 57 1023.0
20260902185948 89 16 2.0 5.0 0.00 0.00 0.00 56 1023.0
20260902185832 89 311 2.0 5.0 0.00 0.00 0.00 57 1023.0
20260902185734 89 285 2.0 6.0 0.00 0.00 0.00 57 1023.0
20260902185632 89 285 2.0 6.0 0.00 0.00 0.00 56 1023.0
20260902185534 89 285 2.0 6.0 0.00 0.00 0.00 56 1023.0
20260902185510 88 355 2.0 6.0 0.00 0.00 0.00 58 1022.9
20260902185456 88 285 2.0 6.0 0.00 0.00 0.00 59 1023.0
20260902185231 88 355 2.0 6.0 0.00 0.00 0.00 58 1023.0
20260902185133 88 355 2.0 6.0 0.00 0.00 0.00 58 1023.0
20260902185028 88 355 2.0 6.0 0.00 0.00 0.00 57 1023.1
20260902184927 88 330 1.0 6.0 0.00 0.00 0.00 57 1023.1
20260902184820 87 300 1.0 5.0 0.00 0.00 0.00 59 1023.1
20260902184721 87 201 1.0 5.0 0.00 0.00 0.00 61 1023.1
20260902184622 87 238 1.0 4.0 0.00 0.00 0.00 60 1023.1
20260902184521 87 238 1.0 4.0 0.00 0.00 0.00 59 1023.1
20260902184422 87 255 1.0 4.0 0.00 0.00 0.00 60 1023.1
20260902184316 87 257 2.0 4.0 0.00 0.00 0.00 59 1023.1
20260902184215 87 257 2.0 4.0 0.00 0.00 0.00 58 1023.2
20260902184114 87 257 2.0 4.0 0.00 0.00 0.00 59 1023.2
20260902184100 88 262 1.0 4.0 0.00 0.00 0.00 59 1023.2
20260902184033 88 262 2.0 4.0 0.00 0.00 0.00 61 1023.2
20260902184014 87 257 2.0 4.0 0.00 0.00 0.00 59 1023.1
20260902183950 88 259 2.0 4.0 0.00 0.00 0.00 59 1023.2
20260902183607 88 236 1.0 4.0 0.00 0.00 0.00 61 1023.2
20260902183504 88 201 1.0 4.0 0.00 0.00 0.00 59 1023.2
20260902183404 88 201 1.0 4.0 0.00 0.00 0.00 59 1023.2
20260902183303 88 200 1.0 6.0 0.00 0.00 0.00 59 1023.4
20260902183202 88 211 1.0 6.0 0.00 0.00 0.00 61 1023.2
20260902183102 88 211 1.0 6.0 0.00 0.00 0.00 60 1023.2
20260902183003 88 268 1.0 6.0 0.00 0.00 0.00 58 1023.2
20260902182859 88 268 1.0 6.0 0.00 0.00 0.00 57 1023.4
20260902182747 88 268 1.0 6.0 0.00 0.00 0.00 57 1023.2
20260902182648 88 268 1.0 6.0 0.00 0.00 0.00 56 1023.2
20260902182547 89 268 1.0 6.0 0.00 0.00 0.00 56 1023.2
20260902182446 89 268 1.0 6.0 0.00 0.00 0.00 55 1023.4
20260902182413 89 325 1.0 6.0 0.00 0.00 0.00 56 1023.4
20260902182404 89 270 1.0 6.0 0.00 0.00 0.00 56 1023.2
20260902182142 89 298 1.0 6.0 0.00 0.00 0.00 56 1023.4
20260902182044 89 74 2.0 6.0 0.00 0.00 0.00 57 1023.4
20260902181942 89 74 2.0 6.0 0.00 0.00 0.00 57 1023.4
20260902181839 89 74 2.0 6.0 0.00 0.00 0.00 57 1023.4
20260902181806 89 74 3.0 6.0 0.00 0.00 0.00 56 1023.4
20260902181756 89 74 3.0 6.0 0.00 0.00 0.00 57 1023.4
20260902181533 89 74 3.0 6.0 0.00 0.00 0.00 56 1023.2
20260902181433 89 64 3.0 6.0 0.00 0.00 0.00 56 1023.2
20260902181333 89 97 2.0 6.0 0.00 0.00 0.00 56 1023.2
20260902181227 89 121 2.0 6.0 0.00 0.00 0.00 56 1023.2
20260902181126 89 115 2.0 6.0 0.00 0.00 0.00 57 1023.2
20260902181024 89 51 2.0 6.0 0.00 0.00 0.00 56 1023.2
20260902180923 89 88 2.0 6.0 0.00 0.00 0.00 56 1023.2
20260902180823 89 119 2.0 4.0 0.00 0.00 0.00 55 1023.2
20260902180752 89 59 2.0 3.0 0.00 0.00 0.00 55 1023.4
20260902180742 89 121 2.0 3.0 0.00 0.00 0.00 54 1023.2
20260902180550 89 12 2.0 4.0 0.00 0.00 0.00 56 1023.4
20260902180540 89 57 2.0 3.0 0.00 0.00 0.00 57 1023.4
20260902180349 89 42 2.0 4.0 0.00 0.00 0.00 59 1023.4
20260902180340 89 15 2.0 4.0 0.00 0.00 0.00 55 1023.4
20260902180111 88 42 2.0 4.0 0.00 0.00 0.00 57 1023.4
20260902180012 88 25 2.0 4.0 0.00 0.00 0.00 58 1023.4
20260902175910 88 22 2.0 4.0 0.00 0.00 0.00 59 1023.7
20260902175812 87 17 2.0 4.0 0.00 0.00 0.00 58 1023.4
20260902175704 87 91 2.0 4.0 0.00 0.00 0.00 59 1023.4
20260902175602 87 306 2.0 4.0 0.00 0.00 0.00 59 1023.4
20260902175459 87 306 2.0 6.0 0.00 0.00 0.00 59 1023.2
20260902175401 87 308 2.0 6.0 0.00 0.00 0.00 60 1023.4
20260902175300 87 307 2.0 6.0 0.00 0.00 0.00 61 1023.2
20260902175155 87 306 2.0 6.0 0.00 0.00 0.00 59 1023.4
20260902175050 87 209 2.0 6.0 0.00 0.00 0.00 60 1023.4
20260902174956 88 5 2.0 6.0 0.00 0.00 0.00 59 1023.4
20260902174851 88 5 2.0 6.0 0.00 0.00 0.00 57 1023.4
20260902174752 88 5 2.0 6.0 0.00 0.00 0.00 57 1023.4
20260902174722 88 282 2.0 6.0 0.00 0.00 0.00 57 1023.2
20260902174709 88 5 2.0 6.0 0.00 0.00 0.00 57 1023.4
20260902174449 88 230 1.0 6.0 0.00 0.00 0.00 56 1023.2
20260902174354 89 327 1.0 4.0 0.00 0.00 0.00 56 1023.4
20260902174249 89 327 1.0 4.0 0.00 0.00 0.00 56 1023.4
20260902174138 89 217 1.0 4.0 0.00 0.00 0.00 57 1023.4
20260902174045 89 217 1.0 4.0 0.00 0.00 0.00 57 1023.4
20260902173936 89 196 1.0 4.0 0.00 0.00 0.00 56 1023.2
20260902173838 89 196 1.0 4.0 0.00 0.00 0.00 56 1023.4
20260902173736 89 196 1.0 4.0 0.00 0.00 0.00 56 1023.4
20260902173631 88 296 1.0 4.0 0.00 0.00 0.00 57 1023.4
20260902173528 88 217 1.0 4.0 0.00 0.00 0.00 59 1023.4
20260902173506 87 87 1.0 4.0 0.00 0.00 0.00 59 1023.5
20260902173454 88 88 1.0 4.0 0.00 0.00 0.00 60 1023.5
20260902173255 87 78 1.0 3.0 0.00 0.00 0.00 59 1023.6
20260902173247 87 96 1.0 4.0 0.00 0.00 0.00 59 1023.6
20260902173103 87 328 1.0 6.0 0.00 0.00 0.00 58 1023.7
20260902173050 87 328 1.0 6.0 0.00 0.00 0.00 60 1023.7
20260902172825 88 328 1.0 6.0 0.00 0.00 0.00 59 1023.7
20260902172724 88 227 1.0 6.0 0.00 0.00 0.00 62 1023.7
20260902172608 88 227 1.0 6.0 0.00 0.00 0.00 59 1023.7
20260902172510 88 227 1.0 6.0 0.00 0.00 0.00 59 1023.7
20260902172411 88 199 1.0 6.0 0.00 0.00 0.00 59 1023.7
20260902172308 88 199 1.0 6.0 0.00 0.00 0.00 59 1023.7
20260902172208 88 199 2.0 6.0 0.00 0.00 0.00 59 1023.8
20260902172133 88 244 1.0 3.0 0.00 0.00 0.00 59 1023.8
20260902172123 88 199 1.0 6.0 0.00 0.00 0.00 59 1023.8
20260902171932 87 107 1.0 6.0 0.00 0.00 0.00 58 1023.9
20260902171926 87 92 1.0 6.0 0.00 0.00 0.00 58 1023.9
20260902171911 87 112 1.0 3.0 0.00 0.00 0.00 60 1023.8
20260902171847 87 109 1.0 3.0 0.00 0.00 0.00 60 1023.8
20260902171501 87 92 1.0 6.0 0.00 0.00 0.00 57 1023.9
20260902171405 87 92 1.0 6.0 0.00 0.00 0.00 58 1023.9
20260902171335 87 92 1.0 6.0 0.00 0.00 0.00 58 1023.8
20260902171324 87 92 1.0 6.0 0.00 0.00 0.00 58 1023.9
20260902171048 87 92 1.0 6.0 0.00 0.00 0.00 58 1023.9
20260902170949 87 92 1.0 6.0 0.00 0.00 0.00 58 1024.0
20260902170849 88 92 1.0 6.0 0.00 0.00 0.00 59 1024.0
20260902170751 88 87 1.0 6.0 0.00 0.00 0.00 58 1024.0
20260902170647 88 80 1.0 3.0 0.00 0.00 0.00 57 1024.0
20260902170543 88 80 1.0 3.0 0.00 0.00 0.00 56 1024.0
20260902170442 88 80 1.0 3.0 0.00 0.00 0.00 57 1024.1
20260902170342 88 80 1.0 3.0 0.00 0.00 0.00 58 1024.0
20260902170243 89 80 1.0 3.0 0.00 0.00 0.00 58 1024.1
20260902170140 89 80 1.0 4.0 0.00 0.00 0.00 58 1024.1
20260902170041 89 15 1.0 4.0 0.00 0.00 0.00 59 1024.1
20260902165937 88 15 2.0 4.0 0.00 0.00 0.00 57 1024.1
20260902165907 88 15 1.0 4.0 0.00 0.00 0.00 59 1024.0
20260902165857 88 15 1.0 4.0 0.00 0.00 0.00 59 1024.1
20260902165635 88 5 2.0 4.0 0.00 0.00 0.00 58 1024.1
20260902165521 88 5 2.0 5.0 0.00 0.00 0.00 57 1024.1
20260902165423 88 5 2.0 5.0 0.00 0.00 0.00 57 1024.2
20260902165408 87 38 1.0 5.0 0.00 0.00 0.00 59 1024.2
20260902165323 87 5 1.0 5.0 0.00 0.00 0.00 58 1024.1
20260902165316 87 246 1.0 5.0 0.00 0.00 0.00 58 1024.1
20260902165258 87 5 1.0 5.0 0.00 0.00 0.00 58 1024.1
20260902164952 87 202 2.0 7.0 0.00 0.00 0.00 61 1024.2
20260902164939 87 202 2.0 5.0 0.00 0.00 0.00 61 1024.2
20260902164715 87 301 2.0 7.0 0.00 0.00 0.00 60 1024.2
20260902164617 87 301 2.0 7.0 0.00 0.00 0.00 61 1024.2
20260902164517 86 349 2.0 7.0 0.00 0.00 0.00 61 1024.2
20260902164412 86 348 2.0 7.0 0.00 0.00 0.00 61 1024.3
20260902164307 86 348 2.0 7.0 0.00 0.00 0.00 60 1024.3
20260902164208 86 348 2.0 7.0 0.00 0.00 0.00 60 1024.2
20260902164109 86 348 2.0 7.0 0.00 0.00 0.00 60 1024.3
20260902164001 86 322 2.0 7.0 0.00 0.00 0.00 60 1024.3
20260902163859 86 337 2.0 7.0 0.00 0.00 0.00 60 1024.3
20260902163800 86 346 2.0 6.0 0.00 0.00 0.00 61 1024.3
20260902163657 85 287 2.0 6.0 0.00 0.00 0.00 61 1024.3
20260902163637 85 171 2.0 4.0 0.00 0.00 0.00 60 1024.3
20260902163625 85 173 2.0 4.0 0.00 0.00 0.00 61 1024.3
20260902163431 86 107 2.0 4.0 0.00 0.00 0.00 60 1024.3
20260902163422 85 181 2.0 4.0 0.00 0.00 0.00 60 1024.4
20260902163158 86 101 2.0 4.0 0.00 0.00 0.00 61 1024.4
20260902163126 85 206 3.0 6.0 0.00 0.00 0.00 60 1024.4
20260902163120 85 206 2.0 6.0 0.00 0.00 0.00 60 1024.4
20260902163114 85 206 3.0 6.0 0.00 0.00 0.00 60 1024.4
20260902163102 85 123 2.0 4.0 0.00 0.00 0.00 62 1024.4
20260902163039 85 252 2.0 4.0 0.00 0.00 0.00 60 1024.4
20260902162911 85 226 2.0 4.0 0.00 0.00 0.00 60 1024.4
20260902162855 85 225 2.0 6.0 0.00 0.00 0.00 60 1024.4
20260902162421 85 226 3.0 7.0 0.00 0.00 0.00 61 1024.4
20260902162412 85 228 3.0 7.0 0.00 0.00 0.00 60 1024.5
20260902162148 85 309 3.0 7.0 0.00 0.00 0.00 60 1024.4
20260902162047 85 316 3.0 7.0 0.00 0.00 0.00 59 1024.5
20260902161947 85 313 3.0 7.0 0.00 0.00 0.00 59 1024.5
20260902161847 85 275 3.0 7.0 0.00 0.00 0.00 62 1024.4
20260902161744 85 302 3.0 7.0 0.00 0.00 0.00 62 1024.5
20260902161644 84 317 3.0 7.0 0.00 0.00 0.00 65 1024.5
20260902161540 84 317 3.0 7.0 0.00 0.00 0.00 63 1024.4
20260902161441 84 302 3.0 7.0 0.00 0.00 0.00 63 1024.5
20260902161408 84 323 2.0 5.0 0.00 0.00 0.00 63 1024.5
20260902161359 84 0 2.0 5.0 0.00 0.00 0.00 62 1024.4
20260902161136 84 323 2.0 5.0 0.00 0.00 0.00 62 1024.5
20260902161031 84 323 2.0 5.0 0.00 0.00 0.00 63 1024.6
20260902160935 84 325 2.0 7.0 0.00 0.00 0.00 63 1024.6
20260902160831 84 300 2.0 7.0 0.00 0.00 0.00 62 1024.6
20260902160728 84 348 2.0 7.0 0.00 0.00 0.00 63 1024.6
20260902160623 84 355 2.0 7.0 0.00 0.00 0.00 62 1024.7
20260902160526 84 309 2.0 7.0 0.00 0.00 0.00 62 1024.6
20260902160424 84 209 2.0 7.0 0.00 0.00 0.00 62 1024.6
20260902160325 84 205 2.0 7.0 0.00 0.00 0.00 62 1024.7
20260902160220 84 208 2.0 7.0 0.00 0.00 0.00 61 1024.7
20260902160122 84 236 2.0 7.0 0.00 0.00 0.00 61 1024.7
20260902160021 84 297 2.0 7.0 0.00 0.00 0.00 62 1024.7
20260902155920 84 234 2.0 7.0 0.00 0.00 0.00 62 1024.6
20260902155820 84 280 2.0 7.0 0.00 0.00 0.00 62 1024.6
20260902155726 84 281 1.0 7.0 0.00 0.00 0.00 62 1024.7
20260902155620 85 206 1.0 5.0 0.00 0.00 0.00 62 1024.6
20260902155520 85 255 1.0 5.0 0.00 0.00 0.00 62 1024.7
20260902155423 85 255 1.0 5.0 0.00 0.00 0.00 62 1024.7
20260902155323 85 255 1.0 5.0 0.00 0.00 0.00 63 1024.7
20260902155308 85 263 2.0 5.0 0.00 0.00 0.00 65 1024.7
20260902155250 85 254 1.0 5.0 0.00 0.00 0.00 62 1024.7
20260902155015 85 169 2.0 5.0 0.00 0.00 0.00 65 1024.6
20260902154915 85 169 2.0 5.0 0.00 0.00 0.00 64 1024.6
20260902154817 85 65 1.0 5.0 0.00 0.00 0.00 64 1024.7
20260902154758 85 63 1.0 5.0 0.00 0.00 0.00 64 1024.6
20260902154744 85 63 2.0 5.0 0.00 0.00 0.00 64 1024.6
20260902154515 85 188 1.0 5.0 0.00 0.00 0.00 65 1024.7
20260902154422 85 190 1.0 5.0 0.00 0.00 0.00 65 1024.6
20260902154315 85 232 1.0 5.0 0.00 0.00 0.00 65 1024.6
20260902154212 85 232 2.0 5.0 0.00 0.00 0.00 65 1024.6
20260902154120 85 332 2.0 8.0 0.00 0.00 0.00 65 1024.7
20260902154013 85 17 2.0 8.0 0.00 0.00 0.00 66 1024.7
20260902153907 85 311 2.0 8.0 0.00 0.00 0.00 65 1024.6
20260902153807 85 167 2.0 8.0 0.00 0.00 0.00 65 1024.7
20260902153704 85 168 2.0 8.0 0.00 0.00 0.00 66 1024.7
20260902153607 85 62 3.0 8.0 0.00 0.00 0.00 66 1024.7
20260902153504 84 62 3.0 8.0 0.00 0.00 0.00 67 1024.7
20260902153434 79 185 0.0 2.0 0.00 0.00 0.00 62 1022.1
20260902153428 79 190 1.0 3.0 0.00 0.00 0.00 62 1022.2
20260902153423 84 309 3.0 8.0 0.00 0.00 0.00 66 1024.7
20260902153411 84 61 3.0 8.0 0.00 0.00 0.00 66 1024.6
20260902153248 84 317 3.0 8.0 0.00 0.00 0.00 66 1024.7
20260902153126 80 209 2.0 3.0 0.00 0.00 0.00 69 1024.1
20260902153118 79 200 1.0 3.0 0.00 0.00 0.00 66 1023.2
20260902153112 78 194 0.0 0.0 0.00 0.00 0.00 67 1022.7
20260902153100 84 355 2.0 6.0 0.00 0.00 0.00 65 1024.6
20260902153009 84 315 2.0 5.0 0.00 0.00 0.00 66 1024.6
20260902152941 84 225 3.0 5.0 0.00 0.00 0.00 66 1024.7
20260902152825 79 185 0.0 2.0 0.00 0.00 0.00 62 1022.1
20260902152816 79 185 0.0 2.0 0.00 0.00 0.00 68 1022.2
20260902152802 84 304 3.0 6.0 0.00 0.00 0.00 66 1024.7
20260902152754 84 5 3.0 9.0 0.00 0.00 0.00 66 1024.8
20260902152748 83 318 3.0 8.0 0.00 0.00 0.00 64 1024.5
20260902152742 82 218 2.0 4.0 0.00 0.00 0.00 66 1024.4
20260902152731 82 224 1.0 3.0 0.00 0.00 0.00 67 1024.3
20260902152725 81 196 1.0 4.0 0.00 0.00 0.00 67 1024.1
20260902152700 84 308 3.0 8.0 0.00 0.00 0.00 66 1024.7
20260902152651 81 207 1.0 4.0 0.00 0.00 0.00 68 1024.1
20260902152645 81 221 1.0 4.0 0.00 0.00 0.00 70 1024.1
20260902152639 80 221 1.0 3.0 0.00 0.00 0.00 69 1024.1
20260902152633 80 213 1.0 3.0 0.00 0.00 0.00 69 1024.1
20260902152619 84 277 3.0 8.0 0.00 0.00 0.00 66 1024.7
20260902152555 84 344 3.0 8.0 0.00 0.00 0.00 65 1024.6
20260902152439 79 202 1.0 3.0 0.00 0.00 0.00 69 1023.9
20260902152432 84 327 3.0 8.0 0.00 0.00 0.00 65 1024.7
20260902152420 84 326 3.0 8.0 0.00 0.00 0.00 65 1024.6
20260902152247 79 204 0.0 0.0 0.00 0.00 0.00 69 1023.8
20260902152243 79 204 1.0 3.0 0.00 0.00 0.00 69 1023.5
20260902152209 84 325 3.0 8.0 0.00 0.00 0.00 66 1024.7
20260902152134 84 341 3.0 8.0 0.00 0.00 0.00 65 1024.7
20260902152014 78 200 0.0 0.0 0.00 0.00 0.00 68 1023.0
20260902152001 84 322 3.0 8.0 0.00 0.00 0.00 65 1024.7
20260902151948 78 200 0.0 0.0 0.00 0.00 0.00 68 1022.9
20260902151944 78 201 0.0 0.0 0.00 0.00 0.00 68 1022.9
20260902151938 78 201 0.0 0.0 0.00 0.00 0.00 69 1022.9
20260902151932 78 201 0.0 0.0 0.00 0.00 0.00 69 1022.9
20260902151927 84 254 3.0 8.0 0.00 0.00 0.00 67 1024.7
20260902151922 84 319 3.0 8.0 0.00 0.00 0.00 66 1024.8
20260902151905 84 261 3.0 8.0 0.00 0.00 0.00 65 1024.8
20260902151845 84 277 3.0 8.0 0.00 0.00 0.00 66 1024.8
20260902151823 84 254 3.0 8.0 0.00 0.00 0.00 67 1024.7
20260902151528 78 194 0.0 0.0 0.00 0.00 0.00 68 1022.7
20260902151523 78 193 0.0 0.0 0.00 0.00 0.00 66 1022.6
20260902151518 78 193 0.0 0.0 0.00 0.00 0.00 67 1022.6
20260902151512 78 193 0.0 0.0 0.00 0.00 0.00 65 1022.5
20260902151508 78 193 0.0 0.0 0.00 0.00 0.00 64 1022.6
20260902151456 84 296 3.0 8.0 0.00 0.00 0.00 67 1024.8
20260902151446 78 191 0.0 0.0 0.00 0.00 0.00 64 1022.5
20260902151435 78 191 0.0 0.0 0.00 0.00 0.00 65 1022.4
20260902151430 78 191 0.0 0.0 0.00 0.00 0.00 62 1022.3
20260902151424 78 191 0.0 0.0 0.00 0.00 0.00 62 1022.3
20260902151415 78 191 0.0 0.0 0.00 0.00 0.00 62 1022.3
20260902151409 78 191 0.0 0.0 0.00 0.00 0.00 64 1022.3
20260902151404 78 191 0.0 0.0 0.00 0.00 0.00 64 1022.3
20260902151351 84 5 2.0 8.0 0.00 0.00 0.00 66 1024.7
20260902151344 78 191 0.0 0.0 0.00 0.00 0.00 64 1022.3
20260902151331 78 190 1.0 2.0 0.00 0.00 0.00 66 1022.2
20260902151326 79 190 1.0 2.0 0.00 0.00 0.00 64 1022.1
20260902151306 84 330 3.0 9.0 0.00 0.00 0.00 66 1024.8
20260902151237 84 330 3.0 9.0 0.00 0.00 0.00 66 1024.8
20260902151113 84 238 3.0 9.0 0.00 0.00 0.00 66 1024.8
20260902151057 84 309 2.0 9.0 0.00 0.00 0.00 66 1024.8
20260902151037 84 304 2.0 9.0 0.00 0.00 0.00 66 1024.8
20260902150851 84 311 3.0 9.0 0.00 0.00 0.00 67 1024.8
20260902150601 79 190 2.0 3.0 0.00 0.00 0.00 63 1022.2
20260902150555 79 188 1.0 3.0 0.00 0.00 0.00 62 1022.2
20260902150543 84 355 3.0 9.0 0.00 0.00 0.00 66 1024.8
20260902150520 84 355 3.0 9.0 0.00 0.00 0.00 67 1024.8
20260902150400 83 277 3.0 7.0 0.00 0.00 0.00 65 1024.7
20260902150355 83 309 3.0 7.0 0.00 0.00 0.00 66 1024.7
20260902150343 83 283 3.0 9.0 0.00 0.00 0.00 66 1024.8
20260902150335 83 324 3.0 7.0 0.00 0.00 0.00 64 1024.7
20260902150329 83 327 3.0 7.0 0.00 0.00 0.00 65 1024.6
20260902150323 83 297 3.0 8.0 0.00 0.00 0.00 65 1024.6
20260902150318 83 271 3.0 8.0 0.00 0.00 0.00 65 1024.6
20260902150308 83 229 3.0 7.0 0.00 0.00 0.00 66 1024.7
20260902150245 83 15 3.0 7.0 0.00 0.00 0.00 67 1024.7
20260902150133 83 334 4.0 8.0 0.00 0.00 0.00 65 1024.4
20260902150128 83 298 3.0 7.0 0.00 0.00 0.00 65 1024.5
20260902150121 82 253 1.0 4.0 0.00 0.00 0.00 66 1024.3
20260902150117 82 314 1.0 4.0 0.00 0.00 0.00 65 1024.4
20260902150103 83 300 3.0 7.0 0.00 0.00 0.00 66 1024.7
20260902150038 83 300 3.0 7.0 0.00 0.00 0.00 66 1024.7
20260902145729 83 307 3.0 7.0 0.00 0.00 0.00 66 1024.7
20260902145613 82 218 2.0 6.0 0.00 0.00 0.00 66 1024.3
20260902145607 82 211 2.0 6.0 0.00 0.00 0.00 66 1024.4
20260902145603 82 206 2.0 6.0 0.00 0.00 0.00 66 1024.4
20260902145557 82 206 2.0 6.0 0.00 0.00 0.00 66 1024.4
20260902145545 83 219 3.0 7.0 0.00 0.00 0.00 66 1024.7
20260902145538 82 206 2.0 6.0 0.00 0.00 0.00 67 1024.4
20260902145530 82 205 3.0 6.0 0.00 0.00 0.00 67 1024.4
20260902145524 82 207 2.0 6.0 0.00 0.00 0.00 66 1024.3
20260902145518 82 217 2.0 6.0 0.00 0.00 0.00 66 1024.4
20260902145514 82 230 2.0 5.0 0.00 0.00 0.00 67 1024.3
20260902145508 82 211 2.0 4.0 0.00 0.00 0.00 66 1024.4
20260902145501 82 203 2.0 4.0 0.00 0.00 0.00 66 1024.3
20260902145455 82 223 2.0 4.0 0.00 0.00 0.00 67 1024.3
20260902145445 83 219 3.0 7.0 0.00 0.00 0.00 66 1024.7
20260902145424 83 341 3.0 7.0 0.00 0.00 0.00 65 1024.7
20260902145306 82 244 1.0 4.0 0.00 0.00 0.00 67 1024.3
20260902145300 82 236 1.0 4.0 0.00 0.00 0.00 67 1024.2
20260902145245 83 347 3.0 7.0 0.00 0.00 0.00 65 1024.7
20260902145239 82 236 1.0 4.0 0.00 0.00 0.00 67 1024.3
20260902145233 81 205 2.0 4.0 0.00 0.00 0.00 67 1024.2
20260902145230 81 196 1.0 4.0 0.00 0.00 0.00 67 1024.1
20260902145221 81 232 1.0 4.0 0.00 0.00 0.00 67 1024.2
20260902145214 81 207 1.0 4.0 0.00 0.00 0.00 68 1024.2
20260902145159 83 310 3.0 7.0 0.00 0.00 0.00 65 1024.7
20260902145141 83 306 3.0 7.0 0.00 0.00 0.00 65 1024.7
20260902145117 83 323 3.0 7.0 0.00 0.00 0.00 65 1024.6
20260902144719 81 224 1.0 4.0 0.00 0.00 0.00 69 1024.2
20260902144707 83 296 2.0 5.0 0.00 0.00 0.00 64 1024.7
20260902144539 81 224 1.0 4.0 0.00 0.00 0.00 68 1024.2
20260902144522 83 234 3.0 8.0 0.00 0.00 0.00 65 1024.6
20260902144339 81 219 1.0 4.0 0.00 0.00 0.00 69 1024.1
20260902144333 81 221 1.0 4.0 0.00 0.00 0.00 69 1024.1
20260902144327 81 221 1.0 4.0 0.00 0.00 0.00 68 1024.1
20260902144316 83 342 3.0 8.0 0.00 0.00 0.00 65 1024.5
20260902144304 83 219 3.0 8.0 0.00 0.00 0.00 65 1024.4
20260902144012 83 317 3.0 8.0 0.00 0.00 0.00 64 1024.4
20260902143953 83 336 3.0 8.0 0.00 0.00 0.00 65 1024.5
20260902143709 80 221 1.0 3.0 0.00 0.00 0.00 69 1024.1
20260902143703 80 221 1.0 3.0 0.00 0.00 0.00 69 1024.2
20260902143657 80 217 1.0 3.0 0.00 0.00 0.00 69 1024.1
20260902143652 80 217 1.0 3.0 0.00 0.00 0.00 69 1024.1
20260902143640 83 290 3.0 8.0 0.00 0.00 0.00 64 1024.4
20260902143632 80 217 2.0 3.0 0.00 0.00 0.00 69 1024.1
20260902143626 80 217 2.0 3.0 0.00 0.00 0.00 69 1024.2
20260902143620 80 217 2.0 3.0 0.00 0.00 0.00 69 1024.2
20260902143615 80 217 2.0 4.0 0.00 0.00 0.00 69 1024.2
20260902143603 83 295 3.0 7.0 0.00 0.00 0.00 65 1024.5
20260902143431 80 215 2.0 4.0 0.00 0.00 0.00 69 1024.1
20260902143423 80 216 2.0 3.0 0.00 0.00 0.00 69 1024.1
20260902143418 80 216 2.0 3.0 0.00 0.00 0.00 69 1024.1
20260902143413 80 213 1.0 3.0 0.00 0.00 0.00 69 1024.1
20260902143359 83 276 3.0 7.0 0.00 0.00 0.00 64 1024.4
20260902143335 83 294 3.0 7.0 0.00 0.00 0.00 65 1024.5
20260902143222 80 213 1.0 3.0 0.00 0.00 0.00 69 1024.2
20260902143217 80 209 1.0 3.0 0.00 0.00 0.00 69 1024.1
20260902143211 80 209 1.0 2.0 0.00 0.00 0.00 69 1024.1
20260902143205 80 209 1.0 2.0 0.00 0.00 0.00 70 1024.0
20260902143200 80 209 1.0 2.0 0.00 0.00 0.00 70 1024.1
20260902143154 80 209 1.0 3.0 0.00 0.00 0.00 70 1024.1
20260902143142 83 288 3.0 7.0 0.00 0.00 0.00 65 1024.4
20260902143136 80 209 2.0 3.0 0.00 0.00 0.00 70 1024.0
20260902143129 80 209 2.0 3.0 0.00 0.00 0.00 70 1024.0
20260902143124 80 209 2.0 3.0 0.00 0.00 0.00 70 1024.1
20260902143106 83 306 2.0 7.0 0.00 0.00 0.00 65 1024.4
20260902143043 83 290 2.0 6.0 0.00 0.00 0.00 64 1024.4
20260902143024 83 345 2.0 6.0 0.00 0.00 0.00 66 1024.4
20260902143003 83 306 2.0 4.0 0.00 0.00 0.00 65 1024.4
20260902142944 82 319 2.0 4.0 0.00 0.00 0.00 66 1024.4
20260902142926 82 281 2.0 4.0 0.00 0.00 0.00 66 1024.4
20260902142322 82 218 2.0 6.0 0.00 0.00 0.00 67 1024.4
20260902142308 82 218 2.0 6.0 0.00 0.00 0.00 67 1024.4
20260902140806 82 243 1.0 3.0 0.00 0.00 0.00 67 1024.3
20260902140750 82 244 1.0 3.0 0.00 0.00 0.00 67 1024.3
20260902140226 80 209 2.0 3.0 0.00 0.00 0.00 70 1024.0
20260902140220 80 209 2.0 3.0 0.00 0.00 0.00 69 1024.1
20260902140216 80 209 2.0 3.0 0.00 0.00 0.00 69 1024.1
20260902140202 82 206 1.0 4.0 0.00 0.00 0.00 67 1024.3
20260902140037 82 206 2.0 4.0 0.00 0.00 0.00 67 1024.3
20260902140030 80 204 1.0 3.0 0.00 0.00 0.00 69 1024.0
20260902140025 80 204 1.0 3.0 0.00 0.00 0.00 70 1024.0
20260902140020 80 204 1.0 3.0 0.00 0.00 0.00 70 1024.0
20260902140015 79 202 1.0 2.0 0.00 0.00 0.00 70 1024.1
20260902140009 79 202 1.0 2.0 0.00 0.00 0.00 70 1024.0
20260902140005 79 202 1.0 3.0 0.00 0.00 0.00 70 1024.0
20260902135934 81 206 2.0 4.0 0.00 0.00 0.00 68 1024.3
20260902135927 79 202 1.0 3.0 0.00 0.00 0.00 70 1024.0
20260902135923 79 202 1.0 3.0 0.00 0.00 0.00 69 1023.9
20260902135917 79 202 1.0 3.0 0.00 0.00 0.00 69 1023.9
20260902135911 79 202 1.0 3.0 0.00 0.00 0.00 69 1023.9
20260902135856 81 206 2.0 4.0 0.00 0.00 0.00 68 1024.2
20260902135843 81 206 2.0 4.0 0.00 0.00 0.00 68 1024.2
20260902135828 81 205 2.0 4.0 0.00 0.00 0.00 67 1024.2
20260902135456 79 202 1.0 3.0 0.00 0.00 0.00 69 1024.0
20260902135443 81 205 2.0 4.0 0.00 0.00 0.00 67 1024.3
20260902135418 81 249 1.0 4.0 0.00 0.00 0.00 67 1024.2
20260902135357 81 250 1.0 4.0 0.00 0.00 0.00 67 1024.2
20260902135339 81 198 1.0 4.0 0.00 0.00 0.00 67 1024.2
20260902135324 81 196 1.0 4.0 0.00 0.00 0.00 67 1024.2
20260902135302 81 196 1.0 4.0 0.00 0.00 0.00 67 1024.2
20260902135133 81 196 1.0 4.0 0.00 0.00 0.00 67 1024.2
20260902134922 81 207 0.0 4.0 0.00 0.00 0.00 68 1024.1
20260902134250 81 219 1.0 3.0 0.00 0.00 0.00 69 1024.2
20260902133708 81 221 1.0 4.0 0.00 0.00 0.00 69 1024.1
20260902133701 79 202 1.0 3.0 0.00 0.00 0.00 69 1023.9
20260902133657 79 202 0.0 2.0 0.00 0.00 0.00 69 1023.9
20260902133651 79 204 0.0 2.0 0.00 0.00 0.00 69 1023.8
20260902133646 79 204 0.0 2.0 0.00 0.00 0.00 69 1023.9
20260902133640 79 204 0.0 0.0 0.00 0.00 0.00 69 1023.8
20260902133625 81 221 1.0 4.0 0.00 0.00 0.00 69 1024.1
20260902133610 81 221 1.0 4.0 0.00 0.00 0.00 69 1024.2
20260902133558 81 221 1.0 4.0 0.00 0.00 0.00 69 1024.1
20260902133542 81 221 1.0 4.0 0.00 0.00 0.00 69 1024.1
20260902133235 81 221 1.0 4.0 0.00 0.00 0.00 69 1024.1
20260902133221 81 221 1.0 3.0 0.00 0.00 0.00 69 1024.1
20260902133208 81 221 1.0 3.0 0.00 0.00 0.00 69 1024.2
20260902133151 81 221 1.0 3.0 0.00 0.00 0.00 69 1024.1
20260902131828 80 217 2.0 4.0 0.00 0.00 0.00 69 1024.2
20260902131638 79 204 0.0 0.0 0.00 0.00 0.00 69 1023.7
20260902131634 79 204 0.0 2.0 0.00 0.00 0.00 69 1023.7
20260902131628 79 204 0.0 3.0 0.00 0.00 0.00 69 1023.6
20260902131622 79 204 0.0 3.0 0.00 0.00 0.00 69 1023.6
20260902131618 79 204 1.0 3.0 0.00 0.00 0.00 69 1023.7
20260902131612 79 204 1.0 3.0 0.00 0.00 0.00 69 1023.6
20260902131603 80 217 2.0 4.0 0.00 0.00 0.00 69 1024.2
20260902131545 80 217 2.0 4.0 0.00 0.00 0.00 69 1024.1
20260902131524 80 217 2.0 4.0 0.00 0.00 0.00 69 1024.2
20260902131510 80 217 2.0 4.0 0.00 0.00 0.00 69 1024.1
20260902131412 80 218 2.0 4.0 0.00 0.00 0.00 69 1024.1
20260902131357 80 215 2.0 4.0 0.00 0.00 0.00 69 1024.1
20260902131132 80 214 2.0 4.0 0.00 0.00 0.00 69 1024.1
20260902131117 80 216 2.0 3.0 0.00 0.00 0.00 69 1024.2
20260902125738 80 209 1.0 2.0 0.00 0.00 0.00 70 1024.1
20260902125718 80 209 1.0 3.0 0.00 0.00 0.00 70 1024.0
20260902125658 80 209 1.0 3.0 0.00 0.00 0.00 70 1024.1
20260902125556 80 209 1.0 3.0 0.00 0.00 0.00 70 1024.0
20260902125541 80 209 1.0 3.0 0.00 0.00 0.00 70 1024.0
20260902125112 80 209 2.0 3.0 0.00 0.00 0.00 70 1024.0
20260902125058 80 209 2.0 3.0 0.00 0.00 0.00 70 1024.0
20260902125044 80 209 2.0 3.0 0.00 0.00 0.00 70 1024.0
20260902124234 80 208 1.0 3.0 0.00 0.00 0.00 69 1024.0
20260902124214 80 209 1.0 3.0 0.00 0.00 0.00 69 1024.0
20260902123704 79 204 1.0 3.0 0.00 0.00 0.00 68 1023.6
20260902123659 79 204 1.0 3.0 0.00 0.00 0.00 68 1023.6
20260902123654 79 204 1.0 3.0 0.00 0.00 0.00 68 1023.6
20260902123648 79 204 1.0 3.0 0.00 0.00 0.00 68 1023.5
20260902123643 79 200 0.0 3.0 0.00 0.00 0.00 68 1023.6
20260902123639 79 200 0.0 3.0 0.00 0.00 0.00 67 1023.5
20260902123634 79 200 0.0 3.0 0.00 0.00 0.00 67 1023.5
20260902123623 80 203 1.0 3.0 0.00 0.00 0.00 70 1024.0
20260902123617 79 200 0.0 3.0 0.00 0.00 0.00 67 1023.6
20260902123611 79 200 0.0 2.0 0.00 0.00 0.00 67 1023.5
20260902123557 79 203 1.0 3.0 0.00 0.00 0.00 71 1024.1
20260902123321 79 202 1.0 2.0 0.00 0.00 0.00 71 1024.0
20260902123314 79 200 1.0 2.0 0.00 0.00 0.00 67 1023.5
20260902123309 79 200 1.0 3.0 0.00 0.00 0.00 67 1023.5
20260902123304 79 200 1.0 3.0 0.00 0.00 0.00 66 1023.4
20260902123300 79 200 1.0 3.0 0.00 0.00 0.00 66 1023.4
20260902123255 79 200 1.0 3.0 0.00 0.00 0.00 66 1023.2
20260902123249 79 200 1.0 3.0 0.00 0.00 0.00 66 1023.2
20260902123238 79 202 1.0 2.0 0.00 0.00 0.00 71 1024.0
20260902123222 79 202 1.0 2.0 0.00 0.00 0.00 70 1024.0
20260902123207 79 202 1.0 2.0 0.00 0.00 0.00 70 1024.0
20260902122734 79 200 1.0 3.0 0.00 0.00 0.00 66 1023.2
20260902122720 79 202 1.0 3.0 0.00 0.00 0.00 70 1024.0
20260902122703 79 200 0.0 0.0 0.00 0.00 0.00 66 1023.0
20260902122656 78 200 0.0 0.0 0.00 0.00 0.00 66 1023.1
20260902122650 78 200 0.0 0.0 0.00 0.00 0.00 66 1023.2
20260902122646 78 200 0.0 0.0 0.00 0.00 0.00 66 1023.1
20260902122639 79 200 0.0 0.0 0.00 0.00 0.00 67 1023.1
20260902122634 78 200 0.0 0.0 0.00 0.00 0.00 68 1023.0
20260902122629 78 200 0.0 0.0 0.00 0.00 0.00 68 1022.9
20260902122617 79 202 1.0 3.0 0.00 0.00 0.00 70 1024.0
20260902122525 79 202 1.0 3.0 0.00 0.00 0.00 70 1024.0
20260902122511 79 202 1.0 3.0 0.00 0.00 0.00 70 1024.0
20260902122229 78 200 0.0 0.0 0.00 0.00 0.00 68 1022.9
20260902122215 79 202 1.0 3.0 0.00 0.00 0.00 70 1023.9
20260902122159 79 202 1.0 3.0 0.00 0.00 0.00 70 1024.0
20260902122143 79 202 1.0 3.0 0.00 0.00 0.00 70 1024.0
20260902122129 79 202 1.0 3.0 0.00 0.00 0.00 70 1023.9
20260902121236 78 200 0.0 0.0 0.00 0.00 0.00 68 1023.0
20260902121232 78 201 0.0 0.0 0.00 0.00 0.00 68 1022.9
20260902121227 78 201 0.0 0.0 0.00 0.00 0.00 68 1022.9
20260902121214 79 202 1.0 3.0 0.00 0.00 0.00 69 1023.9
20260902121202 79 202 0.0 3.0 0.00 0.00 0.00 69 1024.0
20260902120926 79 204 0.0 2.0 0.00 0.00 0.00 69 1023.8
20260902120911 79 204 0.0 2.0 0.00 0.00 0.00 69 1023.9
20260902120845 79 204 0.0 2.0 0.00 0.00 0.00 69 1023.8
20260902120130 78 201 0.0 0.0 0.00 0.00 0.00 68 1022.8
20260902120112 79 204 0.0 0.0 0.00 0.00 0.00 69 1023.8
20260902115955 78 201 0.0 0.0 0.00 0.00 0.00 69 1022.9
20260902115944 79 204 0.0 0.0 0.00 0.00 0.00 69 1023.8
20260902115928 79 204 0.0 1.0 0.00 0.00 0.00 69 1023.8
20260902115910 79 204 0.0 2.0 0.00 0.00 0.00 69 1023.7
20260902115855 79 204 0.0 2.0 0.00 0.00 0.00 69 1023.7
20260902114915 78 201 0.0 0.0 0.00 0.00 0.00 69 1023.0
20260902114856 79 204 1.0 3.0 0.00 0.00 0.00 68 1023.6
20260902114729 79 204 1.0 3.0 0.00 0.00 0.00 68 1023.6
20260902114706 78 201 0.0 0.0 0.00 0.00 0.00 69 1022.9
20260902114700 78 201 0.0 0.0 0.00 0.00 0.00 69 1022.9
20260902114647 79 204 1.0 3.0 0.00 0.00 0.00 68 1023.6
20260902114501 79 201 0.0 2.0 0.00 0.00 0.00 68 1023.6
20260902114339 79 200 0.0 2.0 0.00 0.00 0.00 68 1023.6
20260902114157 79 200 0.0 3.0 0.00 0.00 0.00 67 1023.5
20260902114024 79 200 0.0 3.0 0.00 0.00 0.00 67 1023.5
20260902113628 78 194 0.0 0.0 0.00 0.00 0.00 69 1022.8
20260902113622 78 194 0.0 0.0 0.00 0.00 0.00 69 1022.9
20260902113616 78 194 0.0 0.0 0.00 0.00 0.00 67 1022.9
20260902113604 79 200 0.0 3.0 0.00 0.00 0.00 67 1023.6
20260902113558 78 194 0.0 0.0 0.00 0.00 0.00 66 1022.8
20260902113553 78 194 0.0 0.0 0.00 0.00 0.00 66 1022.9
20260902113546 78 194 0.0 0.0 0.00 0.00 0.00 66 1022.8
20260902113542 78 194 0.0 0.0 0.00 0.00 0.00 66 1022.9
20260902113537 78 194 0.0 0.0 0.00 0.00 0.00 66 1022.8
20260902113531 78 194 0.0 0.0 0.00 0.00 0.00 67 1022.8
20260902113523 79 200 0.0 3.0 0.00 0.00 0.00 67 1023.6
20260902113458 79 200 0.0 3.0 0.00 0.00 0.00 67 1023.5
20260902113338 78 194 0.0 0.0 0.00 0.00 0.00 67 1022.7
20260902113333 78 194 0.0 0.0 0.00 0.00 0.00 68 1022.7
20260902113329 78 194 0.0 0.0 0.00 0.00 0.00 68 1022.7
20260902113323 78 194 0.0 0.0 0.00 0.00 0.00 68 1022.8
20260902113319 78 194 0.0 0.0 0.00 0.00 0.00 68 1022.8
20260902113314 78 194 0.0 0.0 0.00 0.00 0.00 68 1022.7
20260902113303 79 200 0.0 3.0 0.00 0.00 0.00 67 1023.5
20260902113242 79 200 0.0 2.0 0.00 0.00 0.00 67 1023.5
20260902113126 78 194 0.0 0.0 0.00 0.00 0.00 69 1022.7
20260902113120 78 194 0.0 0.0 0.00 0.00 0.00 69 1022.7
20260902113116 78 194 0.0 0.0 0.00 0.00 0.00 69 1022.6
20260902113111 78 194 0.0 0.0 0.00 0.00 0.00 69 1022.6
20260902113105 78 194 0.0 0.0 0.00 0.00 0.00 69 1022.6
20260902113100 78 194 0.0 0.0 0.00 0.00 0.00 68 1022.7
20260902113051 79 200 0.0 2.0 0.00 0.00 0.00 67 1023.4
20260902113044 78 194 0.0 0.0 0.00 0.00 0.00 68 1022.7
20260902113038 78 194 0.0 0.0 0.00 0.00 0.00 68 1022.6
20260902113033 78 194 0.0 0.0 0.00 0.00 0.00 68 1022.6
20260902113026 78 194 0.0 0.0 0.00 0.00 0.00 68 1022.7
20260902113022 78 194 0.0 0.0 0.00 0.00 0.00 68 1022.6
20260902113016 78 194 0.0 0.0 0.00 0.00 0.00 68 1022.6
20260902113003 79 200 0.0 2.0 0.00 0.00 0.00 67 1023.5
20260902112941 79 200 0.0 2.0 0.00 0.00 0.00 67 1023.5
20260902112825 78 193 0.0 0.0 0.00 0.00 0.00 66 1022.5
20260902112821 78 193 0.0 0.0 0.00 0.00 0.00 67 1022.6
20260902112816 78 193 0.0 0.0 0.00 0.00 0.00 67 1022.5
20260902112802 79 200 0.0 2.0 0.00 0.00 0.00 67 1023.6
20260902112748 79 200 0.0 2.0 0.00 0.00 0.00 67 1023.5
20260902112730 79 200 0.0 2.0 0.00 0.00 0.00 67 1023.5
20260902112233 79 200 1.0 3.0 0.00 0.00 0.00 67 1023.5
20260902112215 79 200 1.0 3.0 0.00 0.00 0.00 67 1023.5
20260902112200 79 200 1.0 3.0 0.00 0.00 0.00 67 1023.4
20260902112147 79 200 1.0 3.0 0.00 0.00 0.00 67 1023.4
20260902111640 79 200 1.0 3.0 0.00 0.00 0.00 66 1023.2
20260902111048 78 193 0.0 0.0 0.00 0.00 0.00 67 1022.5
20260902111043 78 193 0.0 0.0 0.00 0.00 0.00 67 1022.6
20260902111038 78 193 0.0 0.0 0.00 0.00 0.00 67 1022.5
20260902111026 79 200 1.0 3.0 0.00 0.00 0.00 66 1023.2
20260902111017 78 193 0.0 0.0 0.00 0.00 0.00 67 1022.6
20260902111012 78 193 0.0 0.0 0.00 0.00 0.00 67 1022.6
20260902111006 78 193 0.0 0.0 0.00 0.00 0.00 67 1022.5
20260902111002 78 193 0.0 0.0 0.00 0.00 0.00 67 1022.5
20260902110957 78 193 0.0 0.0 0.00 0.00 0.00 66 1022.5
20260902110948 79 200 0.0 3.0 0.00 0.00 0.00 66 1023.1
20260902110928 79 200 0.0 3.0 0.00 0.00 0.00 66 1023.2
20260902110812 78 193 0.0 0.0 0.00 0.00 0.00 65 1022.5
20260902110806 78 193 0.0 0.0 0.00 0.00 0.00 65 1022.6
20260902110751 79 200 0.0 2.0 0.00 0.00 0.00 66 1023.1
20260902110626 78 200 0.0 0.0 0.00 0.00 0.00 66 1023.1
20260902110619 78 191 0.0 0.0 0.00 0.00 0.00 64 1022.5
20260902110604 78 200 0.0 0.0 0.00 0.00 0.00 66 1023.1
20260902110546 78 200 0.0 0.0 0.00 0.00 0.00 66 1023.1
20260902105951 78 191 0.0 0.0 0.00 0.00 0.00 64 1022.4
20260902105946 78 191 0.0 0.0 0.00 0.00 0.00 64 1022.5
20260902105941 78 191 0.0 0.0 0.00 0.00 0.00 65 1022.4
20260902105932 78 200 0.0 0.0 0.00 0.00 0.00 66 1023.1
20260902105914 79 200 0.0 0.0 0.00 0.00 0.00 66 1023.1
20260902105906 79 200 0.0 0.0 0.00 0.00 0.00 66 1023.1
20260902105844 79 200 0.0 0.0 0.00 0.00 0.00 67 1023.1
20260902105601 78 200 0.0 0.0 0.00 0.00 0.00 67 1023.0
20260902105542 78 200 0.0 0.0 0.00 0.00 0.00 68 1023.0
20260902105520 78 200 0.0 0.0 0.00 0.00 0.00 67 1023.0
20260902105057 78 200 0.0 0.0 0.00 0.00 0.00 68 1023.0
20260902105040 78 200 0.0 0.0 0.00 0.00 0.00 68 1023.0
20260902104954 78 200 0.0 0.0 0.00 0.00 0.00 68 1022.9
20260902103905 78 201 0.0 0.0 0.00 0.00 0.00 68 1022.9
20260902103851 78 201 0.0 0.0 0.00 0.00 0.00 68 1022.9
20260902103837 78 201 0.0 0.0 0.00 0.00 0.00 68 1022.9
20260902103819 78 201 0.0 0.0 0.00 0.00 0.00 68 1022.9
20260902103139 78 191 0.0 0.0 0.00 0.00 0.00 64 1022.4
20260902103133 78 191 0.0 0.0 0.00 0.00 0.00 64 1022.4
20260902103127 78 191 0.0 0.0 0.00 0.00 0.00 64 1022.4
20260902103120 78 191 0.0 0.0 0.00 0.00 0.00 62 1022.4
20260902103109 78 201 0.0 0.0 0.00 0.00 0.00 69 1022.9
20260902102931 78 191 0.0 0.0 0.00 0.00 0.00 62 1022.3
20260902102926 78 191 0.0 0.0 0.00 0.00 0.00 62 1022.3
20260902102908 78 201 0.0 0.0 0.00 0.00 0.00 68 1022.9
20260902102841 78 201 0.0 0.0 0.00 0.00 0.00 69 1023.0
20260902102808 78 201 0.0 0.0 0.00 0.00 0.00 69 1022.9
20260902102747 78 201 0.0 0.0 0.00 0.00 0.00 68 1022.9
20260902102442 78 201 0.0 0.0 0.00 0.00 0.00 69 1022.9
20260902102023 78 191 0.0 0.0 0.00 0.00 0.00 62 1022.3
20260902102015 78 194 0.0 0.0 0.00 0.00 0.00 69 1022.9
20260902101946 78 194 0.0 0.0 0.00 0.00 0.00 69 1022.9
20260902101912 78 194 0.0 0.0 0.00 0.00 0.00 68 1022.9
20260902101855 78 194 0.0 0.0 0.00 0.00 0.00 68 1022.9
20260902101826 78 194 0.0 0.0 0.00 0.00 0.00 67 1022.9
20260902101757 78 194 0.0 0.0 0.00 0.00 0.00 67 1022.9
20260902101147 78 194 0.0 0.0 0.00 0.00 0.00 66 1022.8
20260902101058 78 194 0.0 0.0 0.00 0.00 0.00 66 1022.8
20260902100607 78 194 0.0 0.0 0.00 0.00 0.00 67 1022.7
20260902100554 78 194 0.0 0.0 0.00 0.00 0.00 67 1022.7
20260902100513 78 194 0.0 0.0 0.00 0.00 0.00 68 1022.7
20260902100457 78 194 0.0 0.0 0.00 0.00 0.00 68 1022.8
20260902100431 78 194 0.0 0.0 0.00 0.00 0.00 68 1022.7
20260902100353 78 194 0.0 0.0 0.00 0.00 0.00 68 1022.7